Time,TemperatureF,DewpointF,PressureIn,WindDirection,WindDirectionDegrees,WindSpeedMPH,WindSpeedGustMPH,Humidity,HourlyPrecipIn,Conditions,Clouds,dailyrainin,SoftwareType,DateUTC
2013-03-14 00:00:00,28.6,22.9,29.75,West,277,6.0,6.0,79,0.00,,,0.00,Wunderground v.1.15,2013-03-14 04:00:00,
2013-03-14 00:01:00,28.6,22.6,29.75,SSW,196,4.0,6.0,78,0.00,,,0.00,Wunderground v.1.15,2013-03-14 04:01:00,
2013-03-14 00:02:00,28.6,22.6,29.75,SW,226,8.0,8.0,78,0.00,,,0.00,Wunderground v.1.15,2013-03-14 04:02:00,
2013-03-14 00:07:00,28.7,23.0,29.74,WSW,250,0.0,8.0,79,0.00,,,0.00,Wunderground v.1.15,2013-03-14 04:07:00,
2013-03-14 00:08:00,28.6,23.2,29.75,WSW,250,3.0,8.0,80,0.00,,,0.00,Wunderground v.1.15,2013-03-14 04:08:00,
2013-03-14 00:11:00,28.6,23.2,29.75,SW,234,4.0,4.0,80,0.00,,,0.00,Wunderground v.1.15,2013-03-14 04:11:00,
2013-03-14 00:12:00,28.6,23.2,29.75,West,279,2.0,4.0,80,0.00,,,0.00,Wunderground v.1.15,2013-03-14 04:12:00,
2013-03-14 00:13:00,28.6,23.2,29.75,West,268,6.0,6.0,80,0.00,,,0.00,Wunderground v.1.15,2013-03-14 04:13:00,
2013-03-14 00:18:00,28.6,23.2,29.74,West,261,5.0,6.0,80,0.00,,,0.00,Wunderground v.1.15,2013-03-14 04:18:00,
2013-03-14 00:19:00,28.6,22.9,29.74,West,261,2.0,6.0,79,0.00,,,0.00,Wunderground v.1.15,2013-03-14 04:19:00,
2013-03-14 00:21:00,28.6,23.2,29.74,SW,215,0.0,4.0,80,0.00,,,0.00,Wunderground v.1.15,2013-03-14 04:21:00,
2013-03-14 00:23:00,28.5,23.1,29.74,SSW,211,4.0,4.0,80,0.00,,,0.00,Wunderground v.1.15,2013-03-14 04:23:00,
2013-03-14 00:28:00,28.5,23.4,29.74,SW,234,0.0,6.0,81,0.00,,,0.00,Wunderground v.1.15,2013-03-14 04:28:00,
2013-03-14 00:29:00,28.5,23.4,29.74,WSW,255,6.0,6.0,81,0.00,,,0.00,Wunderground v.1.15,2013-03-14 04:29:00,
2013-03-14 00:32:00,28.4,23.6,29.74,West,261,3.0,3.0,82,0.00,,,0.00,Wunderground v.1.15,2013-03-14 04:32:00,
2013-03-14 00:35:00,28.4,23.9,29.74,WSW,244,1.0,5.0,83,0.00,,,0.00,Wunderground v.1.15,2013-03-14 04:35:00,
2013-03-14 00:37:00,28.3,23.8,29.74,WSW,250,3.0,5.0,83,0.00,,,0.00,Wunderground v.1.15,2013-03-14 04:37:00,
2013-03-14 00:38:00,28.3,23.8,29.74,WSW,257,3.0,5.0,83,0.00,,,0.00,Wunderground v.1.15,2013-03-14 04:38:00,
2013-03-14 00:40:00,28.3,24.1,29.74,West,267,3.0,3.0,84,0.00,,,0.00,Wunderground v.1.15,2013-03-14 04:40:00,
2013-03-14 00:41:00,28.3,24.1,29.74,SW,215,3.0,3.0,84,0.00,,,0.00,Wunderground v.1.15,2013-03-14 04:41:00,
2013-03-14 00:43:00,28.2,24.0,29.74,West,277,5.0,5.0,84,0.00,,,0.00,Wunderground v.1.15,2013-03-14 04:43:00,
2013-03-14 00:45:00,28.2,24.0,29.74,WNW,296,3.0,6.0,84,0.00,,,0.00,Wunderground v.1.15,2013-03-14 04:45:00,
2013-03-14 00:47:00,28.2,24.0,29.74,West,259,5.0,6.0,84,0.00,,,0.00,Wunderground v.1.15,2013-03-14 04:47:00,
2013-03-14 00:48:00,28.2,24.0,29.74,West,260,4.0,6.0,84,0.00,,,0.00,Wunderground v.1.15,2013-03-14 04:48:00,
2013-03-14 00:53:00,28.1,23.3,29.74,WSW,257,5.0,5.0,82,0.00,,,0.00,Wunderground v.1.15,2013-03-14 04:53:00,
2013-03-14 00:54:00,28.1,23.3,29.74,West,268,3.0,5.0,82,0.00,,,0.00,Wunderground v.1.15,2013-03-14 04:54:00,
2013-03-14 00:57:00,28.1,23.3,29.74,West,259,3.0,5.0,82,0.00,,,0.00,Wunderground v.1.15,2013-03-14 04:57:00,
2013-03-14 00:58:00,28.1,23.3,29.74,West,275,3.0,5.0,82,0.00,,,0.00,Wunderground v.1.15,2013-03-14 04:58:00,
2013-03-14 00:59:00,28.1,23.3,29.74,West,262,7.0,7.0,82,0.00,,,0.00,Wunderground v.1.15,2013-03-14 04:59:00,
2013-03-14 01:00:00,28.1,23.3,29.74,SW,233,3.0,3.0,82,0.00,,,0.00,Wunderground v.1.15,2013-03-14 05:00:00,
2013-03-14 01:02:00,28.1,23.3,29.74,WSW,242,2.0,8.0,82,0.00,,,0.00,Wunderground v.1.15,2013-03-14 05:02:00,
2013-03-14 01:05:00,28.1,23.6,29.74,West,269,2.0,8.0,83,0.00,,,0.00,Wunderground v.1.15,2013-03-14 05:05:00,
2013-03-14 01:06:00,28.1,23.3,29.74,WSW,252,2.0,8.0,82,0.00,,,0.00,Wunderground v.1.15,2013-03-14 05:06:00,
2013-03-14 01:09:00,28.0,23.2,29.74,West,266,4.0,8.0,82,0.00,,,0.00,Wunderground v.1.15,2013-03-14 05:09:00,
2013-03-14 01:10:00,28.1,23.3,29.74,WNW,292,3.0,4.0,82,0.00,,,0.00,Wunderground v.1.15,2013-03-14 05:10:00,
2013-03-14 01:12:00,28.0,23.2,29.74,WSW,258,3.0,4.0,82,0.00,,,0.00,Wunderground v.1.15,2013-03-14 05:12:00,
2013-03-14 01:16:00,28.0,23.2,29.74,WSW,244,3.0,4.0,82,0.00,,,0.00,Wunderground v.1.15,2013-03-14 05:16:00,
2013-03-14 01:17:00,28.0,23.2,29.74,WSW,257,3.0,4.0,82,0.00,,,0.00,Wunderground v.1.15,2013-03-14 05:17:00,
2013-03-14 01:18:00,28.0,23.2,29.74,West,260,2.0,4.0,82,0.00,,,0.00,Wunderground v.1.15,2013-03-14 05:18:00,
2013-03-14 01:21:00,28.0,23.8,29.74,WNW,283,4.0,4.0,84,0.00,,,0.00,Wunderground v.1.15,2013-03-14 05:21:00,
2013-03-14 01:22:00,28.0,23.8,29.74,West,259,5.0,5.0,84,0.00,,,0.00,Wunderground v.1.15,2013-03-14 05:22:00,
2013-03-14 01:23:00,28.0,23.5,29.74,WSW,252,4.0,5.0,83,0.00,,,0.00,Wunderground v.1.15,2013-03-14 05:23:00,
2013-03-14 01:27:00,27.8,23.6,29.74,West,273,4.0,6.0,84,0.00,,,0.00,Wunderground v.1.15,2013-03-14 05:27:00,
2013-03-14 01:28:00,27.8,23.3,29.74,WSW,257,5.0,6.0,83,0.00,,,0.00,Wunderground v.1.15,2013-03-14 05:28:00,
2013-03-14 01:30:00,27.7,23.5,29.74,West,275,5.0,5.0,84,0.00,,,0.00,Wunderground v.1.15,2013-03-14 05:30:00,
2013-03-14 01:32:00,27.5,23.0,29.74,West,281,5.0,5.0,83,0.00,,,0.00,Wunderground v.1.15,2013-03-14 05:32:00,
2013-03-14 01:34:00,27.5,23.0,29.74,SW,227,9.0,9.0,83,0.00,,,0.00,Wunderground v.1.15,2013-03-14 05:34:00,
2013-03-14 01:35:00,27.4,23.2,29.74,WSW,243,3.0,9.0,84,0.00,,,0.00,Wunderground v.1.15,2013-03-14 05:35:00,
2013-03-14 01:37:00,27.3,22.8,29.73,WSW,249,7.0,9.0,83,0.00,,,0.00,Wunderground v.1.15,2013-03-14 05:37:00,
2013-03-14 01:39:00,27.2,22.4,29.74,West,272,4.0,9.0,82,0.00,,,0.00,Wunderground v.1.15,2013-03-14 05:39:00,
2013-03-14 01:40:00,27.2,22.1,29.74,West,259,4.0,5.0,81,0.00,,,0.00,Wunderground v.1.15,2013-03-14 05:40:00,
2013-03-14 01:42:00,27.1,22.3,29.74,WNW,302,4.0,5.0,82,0.00,,,0.00,Wunderground v.1.15,2013-03-14 05:42:00,
2013-03-14 01:43:00,27.1,22.0,29.74,WSW,251,5.0,5.0,81,0.00,,,0.00,Wunderground v.1.15,2013-03-14 05:43:00,
2013-03-14 01:45:00,27.0,21.7,29.74,West,281,4.0,8.0,80,0.00,,,0.00,Wunderground v.1.15,2013-03-14 05:45:00,
2013-03-14 01:49:00,27.0,21.4,29.74,WSW,246,7.0,8.0,79,0.00,,,0.00,Wunderground v.1.15,2013-03-14 05:49:00,
2013-03-14 01:52:00,26.8,20.9,29.74,SW,218,6.0,10.0,78,0.00,,,0.00,Wunderground v.1.15,2013-03-14 05:52:00,
2013-03-14 01:54:00,26.8,21.2,29.74,WSW,258,4.0,10.0,79,0.00,,,0.00,Wunderground v.1.15,2013-03-14 05:54:00,
2013-03-14 01:55:00,26.7,21.4,29.74,SW,235,14.0,14.0,80,0.00,,,0.00,Wunderground v.1.15,2013-03-14 05:55:00,
2013-03-14 01:59:00,26.5,20.9,29.74,West,259,8.0,14.0,79,0.00,,,0.00,Wunderground v.1.15,2013-03-14 05:59:00,
2013-03-14 02:01:00,26.5,20.9,29.74,West,263,2.0,5.0,79,0.00,,,0.00,Wunderground v.1.15,2013-03-14 06:01:00,
2013-03-14 02:02:00,26.4,20.8,29.74,WSW,258,0.0,5.0,79,0.00,,,0.00,Wunderground v.1.15,2013-03-14 06:02:00,
2013-03-14 02:04:00,26.3,21.0,29.74,SSW,209,5.0,7.0,80,0.00,,,0.00,Wunderground v.1.15,2013-03-14 06:04:00,
2013-03-14 02:06:00,26.2,20.9,29.74,WSW,244,4.0,9.0,80,0.00,,,0.00,Wunderground v.1.15,2013-03-14 06:06:00,
2013-03-14 02:07:00,26.2,20.9,29.74,WSW,245,8.0,9.0,80,0.00,,,0.00,Wunderground v.1.15,2013-03-14 06:07:00,
2013-03-14 02:10:00,26.1,20.8,29.74,SW,233,2.0,9.0,80,0.00,,,0.00,Wunderground v.1.15,2013-03-14 06:10:00,
2013-03-14 02:12:00,26.1,20.8,29.74,SSW,211,5.0,5.0,80,0.00,,,0.00,Wunderground v.1.15,2013-03-14 06:12:00,
2013-03-14 02:13:00,26.0,20.7,29.74,West,259,7.0,11.0,80,0.00,,,0.00,Wunderground v.1.15,2013-03-14 06:13:00,
2013-03-14 02:15:00,26.0,20.7,29.74,SW,225,5.0,11.0,80,0.00,,,0.00,Wunderground v.1.15,2013-03-14 06:15:00,
2013-03-14 02:18:00,25.8,20.5,29.74,WNW,288,6.0,14.0,80,0.00,,,0.00,Wunderground v.1.15,2013-03-14 06:18:00,
2013-03-14 02:20:00,25.7,20.4,29.74,WSW,257,1.0,14.0,80,0.00,,,0.00,Wunderground v.1.15,2013-03-14 06:20:00,
2013-03-14 02:23:00,25.7,20.4,29.74,WNW,288,8.0,12.0,80,0.00,,,0.00,Wunderground v.1.15,2013-03-14 06:23:00,
2013-03-14 02:25:00,25.6,20.3,29.74,SW,230,5.0,12.0,80,0.00,,,0.00,Wunderground v.1.15,2013-03-14 06:25:00,
2013-03-14 02:28:00,25.6,20.0,29.74,WNW,298,4.0,12.0,79,0.00,,,0.00,Wunderground v.1.15,2013-03-14 06:28:00,
2013-03-14 02:30:00,25.5,20.2,29.74,WSW,250,4.0,5.0,80,0.00,,,0.00,Wunderground v.1.15,2013-03-14 06:30:00,
2013-03-14 02:33:00,25.4,20.1,29.74,West,264,5.0,7.0,80,0.00,,,0.00,Wunderground v.1.15,2013-03-14 06:33:00,
2013-03-14 02:36:00,25.4,19.8,29.74,WNW,284,5.0,11.0,79,0.00,,,0.00,Wunderground v.1.15,2013-03-14 06:36:00,
2013-03-14 02:38:00,25.3,19.7,29.74,WSW,256,2.0,11.0,79,0.00,,,0.00,Wunderground v.1.15,2013-03-14 06:38:00,
2013-03-14 02:41:00,25.3,19.7,29.73,West,261,5.0,6.0,79,0.00,,,0.00,Wunderground v.1.15,2013-03-14 06:41:00,
2013-03-14 02:43:00,25.2,19.9,29.74,WSW,242,5.0,8.0,80,0.00,,,0.00,Wunderground v.1.15,2013-03-14 06:43:00,
2013-03-14 02:44:00,25.1,19.8,29.74,West,265,8.0,8.0,80,0.00,,,0.00,Wunderground v.1.15,2013-03-14 06:44:00,
2013-03-14 02:46:00,25.1,19.5,29.73,West,265,3.0,8.0,79,0.00,,,0.00,Wunderground v.1.15,2013-03-14 06:46:00,
2013-03-14 02:48:00,25.0,19.7,29.74,West,271,1.0,8.0,80,0.00,,,0.00,Wunderground v.1.15,2013-03-14 06:48:00,
2013-03-14 02:49:00,25.0,19.7,29.74,West,271,0.0,8.0,80,0.00,,,0.00,Wunderground v.1.15,2013-03-14 06:49:00,
2013-03-14 02:51:00,24.9,19.6,29.73,WSW,246,2.0,6.0,80,0.00,,,0.00,Wunderground v.1.15,2013-03-14 06:51:00,
2013-03-14 02:54:00,24.9,19.6,29.73,WSW,253,3.0,10.0,80,0.00,,,0.00,Wunderground v.1.15,2013-03-14 06:54:00,
2013-03-14 02:56:00,24.9,19.3,29.73,SW,217,1.0,10.0,79,0.00,,,0.00,Wunderground v.1.15,2013-03-14 06:56:00,
2013-03-14 02:59:00,24.9,19.3,29.73,WSW,253,2.0,10.0,79,0.00,,,0.00,Wunderground v.1.15,2013-03-14 06:59:00,
2013-03-14 03:02:00,24.9,19.6,29.73,West,265,5.0,8.0,80,0.00,,,0.00,Wunderground v.1.15,2013-03-14 07:02:00,
2013-03-14 03:04:00,24.8,19.2,29.73,SW,219,4.0,10.0,79,0.00,,,0.00,Wunderground v.1.15,2013-03-14 07:04:00,
2013-03-14 03:05:00,24.8,19.2,29.73,West,262,6.0,10.0,79,0.00,,,0.00,Wunderground v.1.15,2013-03-14 07:05:00,
2013-03-14 03:07:00,24.8,19.2,29.73,SSW,213,4.0,10.0,79,0.00,,,0.00,Wunderground v.1.15,2013-03-14 07:07:00,
2013-03-14 03:09:00,24.8,19.5,29.73,WSW,257,7.0,10.0,80,0.00,,,0.00,Wunderground v.1.15,2013-03-14 07:09:00,
2013-03-14 03:10:00,24.7,19.4,29.73,WNW,285,3.0,6.0,80,0.00,,,0.00,Wunderground v.1.15,2013-03-14 07:10:00,
2013-03-14 03:12:00,24.7,19.4,29.73,WSW,257,1.0,6.0,80,0.00,,,0.00,Wunderground v.1.15,2013-03-14 07:12:00,
2013-03-14 03:14:00,24.6,19.3,29.73,West,261,4.0,8.0,80,0.00,,,0.00,Wunderground v.1.15,2013-03-14 07:14:00,
2013-03-14 03:15:00,24.5,19.2,29.73,West,259,5.0,8.0,80,0.00,,,0.00,Wunderground v.1.15,2013-03-14 07:15:00,
2013-03-14 03:16:00,24.5,19.2,29.73,WSW,256,5.0,8.0,80,0.00,,,0.00,Wunderground v.1.15,2013-03-14 07:16:00,
2013-03-14 03:18:00,24.5,19.2,29.72,WSW,247,3.0,8.0,80,0.00,,,0.00,Wunderground v.1.15,2013-03-14 07:18:00,
2013-03-14 03:20:00,24.4,19.1,29.72,WSW,250,11.0,11.0,80,0.00,,,0.00,Wunderground v.1.15,2013-03-14 07:20:00,
2013-03-14 03:22:00,24.4,18.8,29.72,WSW,257,5.0,6.0,79,0.00,,,0.00,Wunderground v.1.15,2013-03-14 07:22:00,
2013-03-14 03:23:00,24.4,18.8,29.72,West,261,3.0,11.0,79,0.00,,,0.00,Wunderground v.1.15,2013-03-14 07:23:00,
2013-03-14 03:25:00,24.3,18.7,29.72,WNW,286,4.0,11.0,79,0.00,,,0.00,Wunderground v.1.15,2013-03-14 07:25:00,
2013-03-14 03:27:00,24.3,18.7,29.72,WNW,290,1.0,11.0,79,0.00,,,0.00,Wunderground v.1.15,2013-03-14 07:27:00,
2013-03-14 03:28:00,24.2,18.6,29.72,SW,219,8.0,11.0,79,0.00,,,0.00,Wunderground v.1.15,2013-03-14 07:28:00,
2013-03-14 03:30:00,24.2,18.6,29.72,WSW,254,5.0,11.0,79,0.00,,,0.00,Wunderground v.1.15,2013-03-14 07:30:00,
2013-03-14 03:32:00,24.1,18.8,29.72,West,271,8.0,9.0,80,0.00,,,0.00,Wunderground v.1.15,2013-03-14 07:32:00,
2013-03-14 03:33:00,24.1,18.8,29.72,WSW,248,2.0,9.0,80,0.00,,,0.00,Wunderground v.1.15,2013-03-14 07:33:00,
2013-03-14 03:35:00,24.0,18.7,29.72,West,274,3.0,9.0,80,0.00,,,0.00,Wunderground v.1.15,2013-03-14 07:35:00,
2013-03-14 03:36:00,24.0,18.7,29.72,West,273,5.0,9.0,80,0.00,,,0.00,Wunderground v.1.15,2013-03-14 07:36:00,
2013-03-14 03:38:00,23.9,18.9,29.72,West,275,4.0,9.0,81,0.00,,,0.00,Wunderground v.1.15,2013-03-14 07:38:00,
2013-03-14 03:40:00,23.9,18.6,29.72,WSW,246,5.0,6.0,80,0.00,,,0.00,Wunderground v.1.15,2013-03-14 07:40:00,
2013-03-14 03:42:00,23.8,18.5,29.72,SW,229,6.0,8.0,80,0.00,,,0.00,Wunderground v.1.15,2013-03-14 07:42:00,
2013-03-14 03:43:00,23.8,18.2,29.72,West,275,8.0,8.0,79,0.00,,,0.00,Wunderground v.1.15,2013-03-14 07:43:00,
2013-03-14 03:45:00,23.8,18.5,29.71,WSW,242,4.0,10.0,80,0.00,,,0.00,Wunderground v.1.15,2013-03-14 07:45:00,
2013-03-14 03:47:00,23.7,18.4,29.72,South,186,3.0,10.0,80,0.00,,,0.00,Wunderground v.1.15,2013-03-14 07:47:00,
2013-03-14 03:48:00,23.6,18.3,29.71,SW,236,6.0,12.0,80,0.00,,,0.00,Wunderground v.1.15,2013-03-14 07:48:00,
2013-03-14 03:49:00,23.6,18.3,29.71,WSW,250,9.0,12.0,80,0.00,,,0.00,Wunderground v.1.15,2013-03-14 07:49:00,
2013-03-14 03:50:00,23.5,18.2,29.71,West,273,4.0,9.0,80,0.00,,,0.00,Wunderground v.1.15,2013-03-14 07:50:00,
2013-03-14 03:52:00,23.5,18.2,29.71,South,184,8.0,11.0,80,0.00,,,0.00,Wunderground v.1.15,2013-03-14 07:52:00,
2013-03-14 03:53:00,23.4,18.1,29.71,West,278,3.0,11.0,80,0.00,,,0.00,Wunderground v.1.15,2013-03-14 07:53:00,
2013-03-14 03:54:00,23.4,18.1,29.71,WSW,242,1.0,11.0,80,0.00,,,0.00,Wunderground v.1.15,2013-03-14 07:54:00,
2013-03-14 03:56:00,23.3,18.0,29.71,West,264,3.0,11.0,80,0.00,,,0.00,Wunderground v.1.15,2013-03-14 07:56:00,
2013-03-14 03:58:00,23.3,18.0,29.71,West,271,6.0,13.0,80,0.00,,,0.00,Wunderground v.1.15,2013-03-14 07:58:00,
2013-03-14 04:00:00,23.2,17.9,29.71,WSW,252,9.0,13.0,80,0.00,,,0.00,Wunderground v.1.15,2013-03-14 08:00:00,
2013-03-14 04:01:00,23.1,17.8,29.71,WSW,250,5.0,5.0,80,0.00,,,0.00,Wunderground v.1.15,2013-03-14 08:01:00,
2013-03-14 04:03:00,23.1,17.6,29.71,SW,225,7.0,11.0,79,0.00,,,0.00,Wunderground v.1.15,2013-03-14 08:03:00,
2013-03-14 04:04:00,23.1,17.8,29.71,West,263,5.0,11.0,80,0.00,,,0.00,Wunderground v.1.15,2013-03-14 08:04:00,
2013-03-14 04:05:00,23.0,17.5,29.71,West,263,4.0,12.0,79,0.00,,,0.00,Wunderground v.1.15,2013-03-14 08:05:00,
2013-03-14 04:06:00,23.0,17.5,29.71,WSW,258,5.0,12.0,79,0.00,,,0.00,Wunderground v.1.15,2013-03-14 08:06:00,
2013-03-14 04:08:00,22.9,17.4,29.71,SSW,208,6.0,12.0,79,0.00,,,0.00,Wunderground v.1.15,2013-03-14 08:08:00,
2013-03-14 04:09:00,22.9,17.4,29.71,SW,231,10.0,12.0,79,0.00,,,0.00,Wunderground v.1.15,2013-03-14 08:09:00,
2013-03-14 04:10:00,22.9,17.4,29.71,NW,306,7.0,11.0,79,0.00,,,0.00,Wunderground v.1.15,2013-03-14 08:10:00,
2013-03-14 04:12:00,22.8,17.3,29.71,WSW,238,6.0,11.0,79,0.00,,,0.00,Wunderground v.1.15,2013-03-14 08:12:00,
2013-03-14 04:14:00,22.7,17.2,29.71,SSW,203,3.0,11.0,79,0.00,,,0.00,Wunderground v.1.15,2013-03-14 08:14:00,
2013-03-14 04:15:00,22.7,17.2,29.71,West,268,4.0,13.0,79,0.00,,,0.00,Wunderground v.1.15,2013-03-14 08:15:00,
2013-03-14 04:17:00,22.7,17.2,29.71,West,279,7.0,13.0,79,0.00,,,0.00,Wunderground v.1.15,2013-03-14 08:17:00,
2013-03-14 04:19:00,22.8,17.3,29.71,SW,222,4.0,15.0,79,0.00,,,0.00,Wunderground v.1.15,2013-03-14 08:19:00,
2013-03-14 04:20:00,22.8,17.6,29.71,West,261,2.0,6.0,80,0.00,,,0.00,Wunderground v.1.15,2013-03-14 08:20:00,
2013-03-14 04:22:00,22.7,17.5,29.71,WSW,252,6.0,7.0,80,0.00,,,0.00,Wunderground v.1.15,2013-03-14 08:22:00,
2013-03-14 04:25:00,22.7,17.5,29.72,SSW,194,6.0,10.0,80,0.00,,,0.00,Wunderground v.1.15,2013-03-14 08:25:00,
2013-03-14 04:27:00,22.6,17.4,29.72,SW,224,5.0,14.0,80,0.00,,,0.00,Wunderground v.1.15,2013-03-14 08:27:00,
2013-03-14 04:30:00,22.5,17.3,29.72,SW,232,3.0,6.0,80,0.00,,,0.00,Wunderground v.1.15,2013-03-14 08:30:00,
2013-03-14 04:31:00,22.5,17.3,29.72,West,275,4.0,6.0,80,0.00,,,0.00,Wunderground v.1.15,2013-03-14 08:31:00,
2013-03-14 04:33:00,22.5,17.5,29.72,West,260,7.0,11.0,81,0.00,,,0.00,Wunderground v.1.15,2013-03-14 08:33:00,
2013-03-14 04:35:00,22.5,17.5,29.72,WSW,254,5.0,11.0,81,0.00,,,0.00,Wunderground v.1.15,2013-03-14 08:35:00,
2013-03-14 04:36:00,22.5,17.5,29.72,WSW,250,7.0,11.0,81,0.00,,,0.00,Wunderground v.1.15,2013-03-14 08:36:00,
2013-03-14 04:38:00,22.4,17.7,29.72,WSW,256,5.0,12.0,82,0.00,,,0.00,Wunderground v.1.15,2013-03-14 08:38:00,
2013-03-14 04:41:00,22.4,17.7,29.72,West,267,5.0,8.0,82,0.00,,,0.00,Wunderground v.1.15,2013-03-14 08:41:00,
2013-03-14 04:43:00,22.3,17.9,29.72,WSW,248,4.0,8.0,83,0.00,,,0.00,Wunderground v.1.15,2013-03-14 08:43:00,
2013-03-14 04:46:00,22.3,17.9,29.72,WNW,288,3.0,10.0,83,0.00,,,0.00,Wunderground v.1.15,2013-03-14 08:46:00,
2013-03-14 04:47:00,22.2,17.8,29.72,WSW,249,4.0,10.0,83,0.00,,,0.00,Wunderground v.1.15,2013-03-14 08:47:00,
2013-03-14 04:49:00,22.2,18.1,29.72,WSW,250,5.0,10.0,84,0.00,,,0.00,Wunderground v.1.15,2013-03-14 08:49:00,
2013-03-14 04:52:00,22.0,17.9,29.72,WSW,242,6.0,10.0,84,0.00,,,0.00,Wunderground v.1.15,2013-03-14 08:52:00,
2013-03-14 04:55:00,21.9,18.1,29.72,West,276,7.0,10.0,85,0.00,,,0.00,Wunderground v.1.15,2013-03-14 08:55:00,
2013-03-14 04:57:00,21.9,18.1,29.72,SSW,208,2.0,10.0,85,0.00,,,0.00,Wunderground v.1.15,2013-03-14 08:57:00,
2013-03-14 05:01:00,21.8,18.0,29.72,SW,233,4.0,7.0,85,0.00,,,0.00,Wunderground v.1.15,2013-03-14 09:01:00,
2013-03-14 05:02:00,21.8,18.3,29.72,NNW,343,5.0,7.0,86,0.00,,,0.00,Wunderground v.1.15,2013-03-14 09:02:00,
2013-03-14 05:06:00,21.7,18.2,29.72,SW,225,7.0,13.0,86,0.00,,,0.00,Wunderground v.1.15,2013-03-14 09:06:00,
2013-03-14 05:07:00,21.6,18.1,29.72,WSW,255,4.0,13.0,86,0.00,,,0.00,Wunderground v.1.15,2013-03-14 09:07:00,
2013-03-14 05:08:00,21.6,18.3,29.72,SSW,209,4.0,13.0,87,0.00,,,0.00,Wunderground v.1.15,2013-03-14 09:08:00,
2013-03-14 05:12:00,21.6,18.3,29.72,SW,220,4.0,9.0,87,0.00,,,0.00,Wunderground v.1.15,2013-03-14 09:12:00,
2013-03-14 05:13:00,21.6,18.3,29.72,SW,222,2.0,9.0,87,0.00,,,0.00,Wunderground v.1.15,2013-03-14 09:13:00,
2013-03-14 05:17:00,21.5,18.0,29.72,WSW,238,4.0,9.0,86,0.00,,,0.00,Wunderground v.1.15,2013-03-14 09:17:00,
2013-03-14 05:18:00,21.5,18.2,29.72,WSW,250,4.0,9.0,87,0.00,,,0.00,Wunderground v.1.15,2013-03-14 09:18:00,
2013-03-14 05:19:00,21.5,18.0,29.72,SW,232,3.0,9.0,86,0.00,,,0.00,Wunderground v.1.15,2013-03-14 09:19:00,
2013-03-14 05:22:00,21.5,18.2,29.72,SSW,211,2.0,6.0,87,0.00,,,0.00,Wunderground v.1.15,2013-03-14 09:22:00,
2013-03-14 05:23:00,21.5,18.2,29.72,SSW,213,6.0,10.0,87,0.00,,,0.00,Wunderground v.1.15,2013-03-14 09:23:00,
2013-03-14 05:24:00,21.4,17.9,29.72,West,269,2.0,10.0,86,0.00,,,0.00,Wunderground v.1.15,2013-03-14 09:24:00,
2013-03-14 05:27:00,21.4,17.9,29.72,SW,217,3.0,10.0,86,0.00,,,0.00,Wunderground v.1.15,2013-03-14 09:27:00,
2013-03-14 05:28:00,21.4,17.9,29.72,SW,217,3.0,10.0,86,0.00,,,0.00,Wunderground v.1.15,2013-03-14 09:28:00,
2013-03-14 05:29:00,21.4,18.1,29.72,WSW,246,1.0,10.0,87,0.00,,,0.00,Wunderground v.1.15,2013-03-14 09:29:00,
2013-03-14 05:32:00,21.4,18.1,29.72,WSW,257,4.0,9.0,87,0.00,,,0.00,Wunderground v.1.15,2013-03-14 09:32:00,
2013-03-14 05:33:00,21.4,18.1,29.72,WSW,257,5.0,9.0,87,0.00,,,0.00,Wunderground v.1.15,2013-03-14 09:33:00,
2013-03-14 05:34:00,21.4,17.9,29.72,West,266,5.0,9.0,86,0.00,,,0.00,Wunderground v.1.15,2013-03-14 09:34:00,
2013-03-14 05:37:00,21.3,17.8,29.72,WSW,246,3.0,9.0,86,0.00,,,0.00,Wunderground v.1.15,2013-03-14 09:37:00,
2013-03-14 05:38:00,21.3,17.8,29.72,WNW,297,7.0,11.0,86,0.00,,,0.00,Wunderground v.1.15,2013-03-14 09:38:00,
2013-03-14 05:39:00,21.3,17.8,29.72,WNW,292,7.0,11.0,86,0.00,,,0.00,Wunderground v.1.15,2013-03-14 09:39:00,
2013-03-14 05:42:00,21.3,17.5,29.72,West,259,6.0,11.0,85,0.00,,,0.00,Wunderground v.1.15,2013-03-14 09:42:00,
2013-03-14 05:44:00,21.3,17.5,29.72,West,259,5.0,11.0,85,0.00,,,0.00,Wunderground v.1.15,2013-03-14 09:44:00,
2013-03-14 05:45:00,21.3,17.8,29.72,WSW,256,3.0,11.0,86,0.00,,,0.00,Wunderground v.1.15,2013-03-14 09:45:00,
2013-03-14 05:48:00,21.3,17.8,29.72,West,261,5.0,11.0,86,0.00,,,0.00,Wunderground v.1.15,2013-03-14 09:48:00,
2013-03-14 05:49:00,21.3,17.8,29.72,WSW,255,5.0,11.0,86,0.00,,,0.00,Wunderground v.1.15,2013-03-14 09:49:00,
2013-03-14 05:50:00,21.2,17.7,29.72,WNW,296,4.0,11.0,86,0.00,,,0.00,Wunderground v.1.15,2013-03-14 09:50:00,
2013-03-14 05:53:00,21.2,17.7,29.72,WSW,247,2.0,10.0,86,0.00,,,0.00,Wunderground v.1.15,2013-03-14 09:53:00,
2013-03-14 05:54:00,21.2,17.7,29.72,WSW,244,3.0,10.0,86,0.00,,,0.00,Wunderground v.1.15,2013-03-14 09:54:00,
2013-03-14 05:55:00,21.2,17.7,29.72,WSW,253,5.0,10.0,86,0.00,,,0.00,Wunderground v.1.15,2013-03-14 09:55:00,
2013-03-14 05:58:00,21.2,17.7,29.72,West,263,6.0,10.0,86,0.00,,,0.00,Wunderground v.1.15,2013-03-14 09:58:00,
2013-03-14 05:59:00,21.2,17.7,29.72,West,259,5.0,10.0,86,0.00,,,0.00,Wunderground v.1.15,2013-03-14 09:59:00,
2013-03-14 06:00:00,21.2,17.7,29.72,WSW,238,4.0,10.0,86,0.00,,,0.00,Wunderground v.1.15,2013-03-14 10:00:00,
2013-03-14 06:03:00,21.1,17.6,29.72,WSW,248,4.0,11.0,86,0.00,,,0.00,Wunderground v.1.15,2013-03-14 10:03:00,
2013-03-14 06:05:00,21.1,17.3,29.72,WSW,248,4.0,11.0,85,0.00,,,0.00,Wunderground v.1.15,2013-03-14 10:05:00,
2013-03-14 06:08:00,21.1,17.3,29.72,West,269,7.0,12.0,85,0.00,,,0.00,Wunderground v.1.15,2013-03-14 10:08:00,
2013-03-14 06:10:00,21.1,17.3,29.72,WNW,290,5.0,8.0,85,0.00,,,0.00,Wunderground v.1.15,2013-03-14 10:10:00,
2013-03-14 06:11:00,21.1,17.6,29.72,SW,231,8.0,8.0,86,0.00,,,0.00,Wunderground v.1.15,2013-03-14 10:11:00,
2013-03-14 06:13:00,21.1,17.3,29.72,WSW,252,5.0,11.0,85,0.00,,,0.00,Wunderground v.1.15,2013-03-14 10:13:00,
2013-03-14 06:15:00,21.1,17.3,29.72,West,259,3.0,12.0,85,0.00,,,0.00,Wunderground v.1.15,2013-03-14 10:15:00,
2013-03-14 06:16:00,21.1,17.3,29.72,WSW,240,4.0,12.0,85,0.00,,,0.00,Wunderground v.1.15,2013-03-14 10:16:00,
2013-03-14 06:18:00,21.1,17.0,29.72,WNW,282,3.0,12.0,84,0.00,,,0.00,Wunderground v.1.15,2013-03-14 10:18:00,
2013-03-14 06:20:00,21.0,16.9,29.72,West,265,4.0,6.0,84,0.00,,,0.00,Wunderground v.1.15,2013-03-14 10:20:00,
2013-03-14 06:21:00,21.0,16.9,29.72,WSW,250,3.0,6.0,84,0.00,,,0.00,Wunderground v.1.15,2013-03-14 10:21:00,
2013-03-14 06:22:00,21.1,17.0,29.72,WSW,252,5.0,14.0,84,0.00,,,0.00,Wunderground v.1.15,2013-03-14 10:22:00,
2013-03-14 06:23:00,21.1,17.0,29.72,SW,232,4.0,14.0,84,0.00,,,0.00,Wunderground v.1.15,2013-03-14 10:23:00,
2013-03-14 06:25:00,21.1,17.0,29.72,West,269,5.0,14.0,84,0.00,,,0.00,Wunderground v.1.15,2013-03-14 10:25:00,
2013-03-14 06:27:00,21.1,17.0,29.72,WNW,282,9.0,14.0,84,0.00,,,0.00,Wunderground v.1.15,2013-03-14 10:27:00,
2013-03-14 06:28:00,21.0,16.9,29.72,WSW,245,4.0,14.0,84,0.00,,,0.00,Wunderground v.1.15,2013-03-14 10:28:00,
2013-03-14 06:30:00,20.9,16.8,29.72,WSW,255,6.0,12.0,84,0.00,,,0.00,Wunderground v.1.15,2013-03-14 10:30:00,
2013-03-14 06:31:00,21.0,16.9,29.72,SSE,149,7.0,12.0,84,0.00,,,0.00,Wunderground v.1.15,2013-03-14 10:31:00,
2013-03-14 06:32:00,20.9,16.8,29.72,WSW,258,4.0,13.0,84,0.00,,,0.00,Wunderground v.1.15,2013-03-14 10:32:00,
2013-03-14 06:33:00,20.9,16.8,29.72,SSW,196,6.0,13.0,84,0.00,,,0.00,Wunderground v.1.15,2013-03-14 10:33:00,
2013-03-14 06:35:00,20.9,17.1,29.72,West,261,4.0,13.0,85,0.00,,,0.00,Wunderground v.1.15,2013-03-14 10:35:00,
2013-03-14 06:36:00,20.9,17.1,29.72,West,261,3.0,13.0,85,0.00,,,0.00,Wunderground v.1.15,2013-03-14 10:36:00,
2013-03-14 06:38:00,20.9,17.1,29.72,WSW,258,3.0,13.0,85,0.00,,,0.00,Wunderground v.1.15,2013-03-14 10:38:00,
2013-03-14 06:39:00,20.9,17.1,29.72,West,268,4.0,13.0,85,0.00,,,0.00,Wunderground v.1.15,2013-03-14 10:39:00,
2013-03-14 06:40:00,20.9,16.8,29.72,WSW,250,2.0,9.0,84,0.00,,,0.00,Wunderground v.1.15,2013-03-14 10:40:00,
2013-03-14 06:41:00,20.9,16.8,29.72,WSW,250,2.0,9.0,84,0.00,,,0.00,Wunderground v.1.15,2013-03-14 10:41:00,
2013-03-14 06:43:00,20.8,17.0,29.72,West,266,4.0,9.0,85,0.00,,,0.00,Wunderground v.1.15,2013-03-14 10:43:00,
2013-03-14 06:44:00,20.8,16.7,29.72,WNW,284,3.0,9.0,84,0.00,,,0.00,Wunderground v.1.15,2013-03-14 10:44:00,
2013-03-14 06:46:00,20.8,16.7,29.72,West,262,3.0,9.0,84,0.00,,,0.00,Wunderground v.1.15,2013-03-14 10:46:00,
2013-03-14 06:47:00,20.8,17.0,29.73,West,262,1.0,9.0,85,0.00,,,0.00,Wunderground v.1.15,2013-03-14 10:47:00,
2013-03-14 06:48:00,20.8,17.0,29.72,WNW,290,4.0,9.0,85,0.00,,,0.00,Wunderground v.1.15,2013-03-14 10:48:00,
2013-03-14 06:50:00,20.8,16.7,29.73,WSW,240,5.0,5.0,84,0.00,,,0.00,Wunderground v.1.15,2013-03-14 10:50:00,
2013-03-14 06:51:00,20.8,17.0,29.72,WSW,257,6.0,6.0,85,0.00,,,0.00,Wunderground v.1.15,2013-03-14 10:51:00,
2013-03-14 06:52:00,20.8,16.7,29.72,West,266,3.0,7.0,84,0.00,,,0.00,Wunderground v.1.15,2013-03-14 10:52:00,
2013-03-14 06:53:00,20.8,16.7,29.72,SW,223,4.0,7.0,84,0.00,,,0.00,Wunderground v.1.15,2013-03-14 10:53:00,
2013-03-14 06:55:00,20.8,16.7,29.73,WSW,257,3.0,10.0,84,0.00,,,0.00,Wunderground v.1.15,2013-03-14 10:55:00,
2013-03-14 06:56:00,20.8,16.7,29.73,West,267,3.0,10.0,84,0.00,,,0.00,Wunderground v.1.15,2013-03-14 10:56:00,
2013-03-14 06:58:00,20.8,16.7,29.73,WSW,244,3.0,10.0,84,0.00,,,0.00,Wunderground v.1.15,2013-03-14 10:58:00,
2013-03-14 07:00:00,20.8,16.7,29.73,WNW,297,3.0,11.0,84,0.00,,,0.00,Wunderground v.1.15,2013-03-14 11:00:00,
2013-03-14 07:02:00,20.8,16.7,29.73,WSW,239,3.0,11.0,84,0.00,,,0.00,Wunderground v.1.15,2013-03-14 11:02:00,
2013-03-14 07:03:00,20.8,16.7,29.73,WSW,243,9.0,11.0,84,0.00,,,0.00,Wunderground v.1.15,2013-03-14 11:03:00,
2013-03-14 07:05:00,20.7,16.6,29.73,West,261,5.0,13.0,84,0.00,,,0.00,Wunderground v.1.15,2013-03-14 11:05:00,
2013-03-14 07:07:00,20.7,16.6,29.73,WNW,298,5.0,13.0,84,0.00,,,0.00,Wunderground v.1.15,2013-03-14 11:07:00,
2013-03-14 07:08:00,20.7,16.6,29.73,West,269,4.0,13.0,84,0.00,,,0.00,Wunderground v.1.15,2013-03-14 11:08:00,
2013-03-14 07:11:00,20.7,16.6,29.73,West,265,6.0,6.0,84,0.00,,,0.00,Wunderground v.1.15,2013-03-14 11:11:00,
2013-03-14 07:12:00,20.7,16.6,29.73,West,263,4.0,10.0,84,0.00,,,0.00,Wunderground v.1.15,2013-03-14 11:12:00,
2013-03-14 07:13:00,20.7,16.6,29.73,WSW,257,4.0,10.0,84,0.00,,,0.00,Wunderground v.1.15,2013-03-14 11:13:00,
2013-03-14 07:16:00,20.7,16.6,29.73,WNW,291,5.0,10.0,84,0.00,,,0.00,Wunderground v.1.15,2013-03-14 11:16:00,
2013-03-14 07:17:00,20.8,16.7,29.73,West,259,5.0,10.0,84,0.00,,,0.00,Wunderground v.1.15,2013-03-14 11:17:00,
2013-03-14 07:18:00,20.7,16.6,29.73,West,265,7.0,10.0,84,0.00,,,0.00,Wunderground v.1.15,2013-03-14 11:18:00,
2013-03-14 07:19:00,20.7,16.6,29.73,West,267,7.0,10.0,84,0.00,,,0.00,Wunderground v.1.15,2013-03-14 11:19:00,
2013-03-14 07:20:00,20.7,16.4,29.73,SW,235,5.0,9.0,83,0.00,,,0.00,Wunderground v.1.15,2013-03-14 11:20:00,
2013-03-14 07:22:00,20.7,16.6,29.73,SW,234,5.0,9.0,84,0.00,,,0.00,Wunderground v.1.15,2013-03-14 11:22:00,
2013-03-14 07:24:00,20.7,16.4,29.72,SSW,207,3.0,9.0,83,0.00,,,0.00,Wunderground v.1.15,2013-03-14 11:24:00,
2013-03-14 07:25:00,20.8,16.5,29.73,West,264,5.0,9.0,83,0.00,,,0.00,Wunderground v.1.15,2013-03-14 11:25:00,
2013-03-14 07:27:00,20.8,16.7,29.73,WSW,248,7.0,9.0,84,0.00,,,0.00,Wunderground v.1.15,2013-03-14 11:27:00,
2013-03-14 07:29:00,20.9,16.5,29.72,WSW,256,3.0,10.0,83,0.00,,,0.00,Wunderground v.1.15,2013-03-14 11:29:00,
2013-03-14 07:30:00,20.9,16.5,29.72,West,269,4.0,10.0,83,0.00,,,0.00,Wunderground v.1.15,2013-03-14 11:30:00,
2013-03-14 07:31:00,20.9,16.5,29.72,SSW,208,9.0,9.0,83,0.00,,,0.00,Wunderground v.1.15,2013-03-14 11:31:00,
2013-03-14 07:32:00,20.9,16.5,29.72,WSW,241,3.0,9.0,83,0.00,,,0.00,Wunderground v.1.15,2013-03-14 11:32:00,
2013-03-14 07:35:00,20.9,16.3,29.72,West,263,8.0,9.0,82,0.00,,,0.00,Wunderground v.1.15,2013-03-14 11:35:00,
2013-03-14 07:36:00,20.9,16.0,29.72,West,261,5.0,9.0,81,0.00,,,0.00,Wunderground v.1.15,2013-03-14 11:36:00,
2013-03-14 07:38:00,20.9,16.3,29.72,SSW,204,5.0,10.0,82,0.00,,,0.00,Wunderground v.1.15,2013-03-14 11:38:00,
2013-03-14 07:40:00,20.9,16.0,29.72,WSW,243,5.0,10.0,81,0.00,,,0.00,Wunderground v.1.15,2013-03-14 11:40:00,
2013-03-14 07:42:00,20.9,16.0,29.72,WSW,244,6.0,9.0,81,0.00,,,0.00,Wunderground v.1.15,2013-03-14 11:42:00,
2013-03-14 07:43:00,20.9,16.0,29.72,SW,229,3.0,9.0,81,0.00,,,0.00,Wunderground v.1.15,2013-03-14 11:43:00,
2013-03-14 07:45:00,20.8,15.6,29.72,West,273,6.0,15.0,80,0.00,,,0.00,Wunderground v.1.15,2013-03-14 11:45:00,
2013-03-14 07:47:00,20.8,15.9,29.73,WSW,244,4.0,15.0,81,0.00,,,0.00,Wunderground v.1.15,2013-03-14 11:47:00,
2013-03-14 07:48:00,20.8,15.6,29.73,SSW,196,9.0,15.0,80,0.00,,,0.00,Wunderground v.1.15,2013-03-14 11:48:00,
2013-03-14 07:50:00,20.7,15.8,29.73,WSW,250,5.0,6.0,81,0.00,,,0.00,Wunderground v.1.15,2013-03-14 11:50:00,
2013-03-14 07:52:00,20.7,15.8,29.73,WSW,258,7.0,12.0,81,0.00,,,0.00,Wunderground v.1.15,2013-03-14 11:52:00,
2013-03-14 07:53:00,20.7,15.8,29.73,SW,236,5.0,12.0,81,0.00,,,0.00,Wunderground v.1.15,2013-03-14 11:53:00,
2013-03-14 07:55:00,20.6,15.7,29.73,SW,227,5.0,13.0,81,0.00,,,0.00,Wunderground v.1.15,2013-03-14 11:55:00,
2013-03-14 07:56:00,20.6,15.7,29.73,West,260,9.0,13.0,81,0.00,,,0.00,Wunderground v.1.15,2013-03-14 11:56:00,
2013-03-14 07:57:00,20.6,15.7,29.73,West,259,7.0,13.0,81,0.00,,,0.00,Wunderground v.1.15,2013-03-14 11:57:00,
2013-03-14 07:58:00,20.6,15.7,29.73,WSW,243,6.0,13.0,81,0.00,,,0.00,Wunderground v.1.15,2013-03-14 11:58:00,
2013-03-14 08:00:00,20.5,15.6,29.73,SSW,196,2.0,6.0,81,0.00,,,0.00,Wunderground v.1.15,2013-03-14 12:00:00,
2013-03-14 08:01:00,20.6,15.7,29.73,WSW,250,2.0,6.0,81,0.00,,,0.00,Wunderground v.1.15,2013-03-14 12:01:00,
2013-03-14 08:02:00,20.6,15.4,29.73,West,271,10.0,10.0,80,0.00,,,0.00,Wunderground v.1.15,2013-03-14 12:02:00,
2013-03-14 08:03:00,20.6,15.4,29.73,SW,224,2.0,10.0,80,0.00,,,0.00,Wunderground v.1.15,2013-03-14 12:03:00,
2013-03-14 08:06:00,20.7,15.5,29.73,West,259,2.0,10.0,80,0.00,,,0.00,Wunderground v.1.15,2013-03-14 12:06:00,
2013-03-14 08:07:00,20.7,15.5,29.73,West,266,4.0,10.0,80,0.00,,,0.00,Wunderground v.1.15,2013-03-14 12:07:00,
2013-03-14 08:08:00,20.7,15.5,29.73,WSW,246,2.0,10.0,80,0.00,,,0.00,Wunderground v.1.15,2013-03-14 12:08:00,
2013-03-14 08:11:00,20.8,15.6,29.73,West,267,5.0,8.0,80,0.00,,,0.00,Wunderground v.1.15,2013-03-14 12:11:00,
2013-03-14 08:12:00,20.8,15.6,29.73,WSW,245,8.0,11.0,80,0.00,,,0.00,Wunderground v.1.15,2013-03-14 12:12:00,
2013-03-14 08:13:00,20.8,15.6,29.73,WSW,254,2.0,11.0,80,0.00,,,0.00,Wunderground v.1.15,2013-03-14 12:13:00,
2013-03-14 08:14:00,20.8,15.6,29.73,SW,225,2.0,11.0,80,0.00,,,0.00,Wunderground v.1.15,2013-03-14 12:14:00,
2013-03-14 08:17:00,20.7,15.5,29.73,West,263,3.0,11.0,80,0.00,,,0.00,Wunderground v.1.15,2013-03-14 12:17:00,
2013-03-14 08:18:00,20.7,15.5,29.73,SSW,202,6.0,11.0,80,0.00,,,0.00,Wunderground v.1.15,2013-03-14 12:18:00,
2013-03-14 08:19:00,20.6,15.4,29.73,West,259,4.0,11.0,80,0.00,,,0.00,Wunderground v.1.15,2013-03-14 12:19:00,
2013-03-14 08:22:00,20.6,15.7,29.74,WNW,289,4.0,8.0,81,0.00,,,0.00,Wunderground v.1.15,2013-03-14 12:22:00,
2013-03-14 08:23:00,20.6,15.7,29.74,WSW,254,2.0,8.0,81,0.00,,,0.00,Wunderground v.1.15,2013-03-14 12:23:00,
2013-03-14 08:24:00,20.6,16.0,29.74,NW,313,4.0,8.0,82,0.00,,,0.00,Wunderground v.1.15,2013-03-14 12:24:00,
2013-03-14 08:27:00,20.6,16.0,29.74,WSW,254,3.0,11.0,82,0.00,,,0.00,Wunderground v.1.15,2013-03-14 12:27:00,
2013-03-14 08:28:00,20.5,15.9,29.74,West,259,6.0,11.0,82,0.00,,,0.00,Wunderground v.1.15,2013-03-14 12:28:00,
2013-03-14 08:30:00,20.5,15.9,29.74,West,268,1.0,13.0,82,0.00,,,0.00,Wunderground v.1.15,2013-03-14 12:30:00,
2013-03-14 08:33:00,20.4,15.8,29.74,SW,234,1.0,6.0,82,0.00,,,0.00,Wunderground v.1.15,2013-03-14 12:33:00,
2013-03-14 08:35:00,20.4,15.8,29.74,WSW,246,5.0,9.0,82,0.00,,,0.00,Wunderground v.1.15,2013-03-14 12:35:00,
2013-03-14 08:38:00,20.3,16.0,29.74,West,265,4.0,9.0,83,0.00,,,0.00,Wunderground v.1.15,2013-03-14 12:38:00,
2013-03-14 08:39:00,20.3,16.0,29.74,SW,226,3.0,9.0,83,0.00,,,0.00,Wunderground v.1.15,2013-03-14 12:39:00,
2013-03-14 08:40:00,20.2,15.9,29.74,WSW,241,4.0,9.0,83,0.00,,,0.00,Wunderground v.1.15,2013-03-14 12:40:00,
2013-03-14 08:43:00,20.0,15.9,29.74,SW,217,4.0,9.0,84,0.00,,,0.00,Wunderground v.1.15,2013-03-14 12:43:00,
2013-03-14 08:44:00,20.0,15.9,29.74,SW,217,3.0,9.0,84,0.00,,,0.00,Wunderground v.1.15,2013-03-14 12:44:00,
2013-03-14 08:45:00,20.0,15.9,29.74,SW,232,6.0,9.0,84,0.00,,,0.00,Wunderground v.1.15,2013-03-14 12:45:00,
2013-03-14 08:49:00,19.8,16.3,29.74,West,278,3.0,9.0,86,0.00,,,0.00,Wunderground v.1.15,2013-03-14 12:49:00,
2013-03-14 08:50:00,19.8,16.3,29.74,West,264,2.0,4.0,86,0.00,,,0.00,Wunderground v.1.15,2013-03-14 12:50:00,
2013-03-14 08:54:00,19.8,16.3,29.74,South,181,3.0,8.0,86,0.00,,,0.00,Wunderground v.1.15,2013-03-14 12:54:00,
2013-03-14 08:55:00,19.8,16.0,29.74,SW,233,4.0,10.0,85,0.00,,,0.00,Wunderground v.1.15,2013-03-14 12:55:00,
2013-03-14 09:00:00,19.8,15.7,29.74,West,267,3.0,10.0,84,0.00,,,0.00,Wunderground v.1.15,2013-03-14 13:00:00,
2013-03-14 09:01:00,19.9,15.6,29.74,West,267,1.0,3.0,83,0.00,,,0.00,Wunderground v.1.15,2013-03-14 13:01:00,
2013-03-14 09:05:00,20.0,15.9,29.74,WSW,241,2.0,5.0,84,0.00,,,0.00,Wunderground v.1.15,2013-03-14 13:05:00,
2013-03-14 09:07:00,20.1,16.0,29.74,WNW,285,3.0,5.0,84,0.00,,,0.00,Wunderground v.1.15,2013-03-14 13:07:00,
2013-03-14 09:08:00,20.1,16.0,29.74,West,280,4.0,5.0,84,0.00,,,0.00,Wunderground v.1.15,2013-03-14 13:08:00,
2013-03-14 09:10:00,20.1,16.3,29.74,West,261,2.0,3.0,85,0.00,,,0.00,Wunderground v.1.15,2013-03-14 13:10:00,
2013-03-14 09:12:00,20.0,16.2,29.74,West,261,5.0,6.0,85,0.00,,,0.00,Wunderground v.1.15,2013-03-14 13:12:00,
2013-03-14 09:13:00,20.0,16.2,29.74,WSW,252,7.0,9.0,85,0.00,,,0.00,Wunderground v.1.15,2013-03-14 13:13:00,
2013-03-14 09:15:00,20.0,16.5,29.74,WSW,244,4.0,9.0,86,0.00,,,0.00,Wunderground v.1.15,2013-03-14 13:15:00,
2013-03-14 09:16:00,19.9,16.4,29.74,SW,230,6.0,9.0,86,0.00,,,0.00,Wunderground v.1.15,2013-03-14 13:16:00,
2013-03-14 09:17:00,19.9,16.4,29.74,WSW,237,5.0,11.0,86,0.00,,,0.00,Wunderground v.1.15,2013-03-14 13:17:00,
2013-03-14 09:18:00,19.9,16.7,29.74,SW,222,3.0,11.0,87,0.00,,,0.00,Wunderground v.1.15,2013-03-14 13:18:00,
2013-03-14 09:20:00,19.9,16.7,29.74,WSW,244,4.0,6.0,87,0.00,,,0.00,Wunderground v.1.15,2013-03-14 13:20:00,
2013-03-14 09:21:00,19.9,16.7,29.74,WNW,292,8.0,8.0,87,0.00,,,0.00,Wunderground v.1.15,2013-03-14 13:21:00,
2013-03-14 09:23:00,19.9,16.9,29.74,West,275,5.0,8.0,88,0.00,,,0.00,Wunderground v.1.15,2013-03-14 13:23:00,
2013-03-14 09:24:00,19.9,16.9,29.74,WSW,243,5.0,8.0,88,0.00,,,0.00,Wunderground v.1.15,2013-03-14 13:24:00,
2013-03-14 09:25:00,19.9,16.9,29.74,West,259,4.0,8.0,88,0.00,,,0.00,Wunderground v.1.15,2013-03-14 13:25:00,
2013-03-14 09:27:00,19.8,16.8,29.74,West,266,4.0,11.0,88,0.00,,,0.00,Wunderground v.1.15,2013-03-14 13:27:00,
2013-03-14 09:28:00,19.8,16.8,29.74,WSW,257,7.0,11.0,88,0.00,,,0.00,Wunderground v.1.15,2013-03-14 13:28:00,
2013-03-14 09:29:00,19.7,16.7,29.74,West,271,4.0,11.0,88,0.00,,,0.00,Wunderground v.1.15,2013-03-14 13:29:00,
2013-03-14 09:31:00,19.7,16.7,29.74,WSW,254,6.0,6.0,88,0.00,,,0.00,Wunderground v.1.15,2013-03-14 13:31:00,
2013-03-14 09:32:00,19.6,16.6,29.74,WSW,245,4.0,8.0,88,0.00,,,0.00,Wunderground v.1.15,2013-03-14 13:32:00,
2013-03-14 09:33:00,19.5,16.5,29.74,WSW,255,7.0,8.0,88,0.00,,,0.00,Wunderground v.1.15,2013-03-14 13:33:00,
2013-03-14 09:34:00,19.5,16.5,29.74,West,266,7.0,8.0,88,0.00,,,0.00,Wunderground v.1.15,2013-03-14 13:34:00,
2013-03-14 09:36:00,19.6,16.9,29.74,WNW,284,8.0,9.0,89,0.00,,,0.00,Wunderground v.1.15,2013-03-14 13:36:00,
2013-03-14 09:37:00,19.6,16.9,29.74,West,271,8.0,9.0,89,0.00,,,0.00,Wunderground v.1.15,2013-03-14 13:37:00,
2013-03-14 09:38:00,19.5,16.8,29.74,WSW,247,7.0,10.0,89,0.00,,,0.00,Wunderground v.1.15,2013-03-14 13:38:00,
2013-03-14 09:39:00,19.4,16.4,29.73,West,269,7.0,10.0,88,0.00,,,0.00,Wunderground v.1.15,2013-03-14 13:39:00,
2013-03-14 09:42:00,19.4,16.9,29.74,West,279,5.0,11.0,90,0.00,,,0.00,Wunderground v.1.15,2013-03-14 13:42:00,
2013-03-14 09:43:00,19.3,16.8,29.73,WNW,288,5.0,11.0,90,0.00,,,0.00,Wunderground v.1.15,2013-03-14 13:43:00,
2013-03-14 09:44:00,19.2,16.7,29.73,West,262,12.0,12.0,90,0.00,,,0.00,Wunderground v.1.15,2013-03-14 13:44:00,
2013-03-14 09:45:00,19.2,16.7,29.74,WSW,244,6.0,12.0,90,0.00,,,0.00,Wunderground v.1.15,2013-03-14 13:45:00,
2013-03-14 09:47:00,19.1,16.7,29.73,WSW,251,9.0,14.0,90,0.00,,,0.00,Wunderground v.1.15,2013-03-14 13:47:00,
2013-03-14 09:48:00,19.1,16.9,29.73,West,268,11.0,14.0,91,0.00,,,0.00,Wunderground v.1.15,2013-03-14 13:48:00,
2013-03-14 09:49:00,19.1,16.9,29.73,WSW,252,9.0,14.0,91,0.00,,,0.00,Wunderground v.1.15,2013-03-14 13:49:00,
2013-03-14 09:50:00,19.1,16.7,29.73,West,260,10.0,10.0,90,0.00,,,0.00,Wunderground v.1.15,2013-03-14 13:50:00,
2013-03-14 09:52:00,19.1,16.1,29.72,South,175,13.0,16.0,88,0.00,,,0.00,Wunderground v.1.15,2013-03-14 13:52:00,
2013-03-14 09:53:00,19.1,15.9,29.73,West,259,6.0,16.0,87,0.00,,,0.00,Wunderground v.1.15,2013-03-14 13:53:00,
2013-03-14 09:55:00,19.1,15.3,29.72,SSW,206,9.0,16.0,85,0.00,,,0.00,Wunderground v.1.15,2013-03-14 13:55:00,
2013-03-14 09:56:00,19.1,15.3,29.72,SW,221,10.0,16.0,85,0.00,,,0.00,Wunderground v.1.15,2013-03-14 13:56:00,
2013-03-14 09:57:00,19.2,15.4,29.72,WSW,254,13.0,16.0,85,0.00,,,0.00,Wunderground v.1.15,2013-03-14 13:57:00,
2013-03-14 09:58:00,19.3,15.3,29.72,SSW,193,12.0,16.0,84,0.00,,,0.00,Wunderground v.1.15,2013-03-14 13:58:00,
2013-03-14 10:00:00,19.3,15.3,29.72,WSW,257,4.0,16.0,84,0.00,,,0.00,Wunderground v.1.15,2013-03-14 14:00:00,
2013-03-14 10:01:00,19.3,15.3,29.72,West,277,4.0,9.0,84,0.00,,,0.00,Wunderground v.1.15,2013-03-14 14:01:00,
2013-03-14 10:02:00,19.3,15.0,29.73,West,280,9.0,19.0,83,0.00,,,0.00,Wunderground v.1.15,2013-03-14 14:02:00,
2013-03-14 10:03:00,19.3,14.7,29.73,West,263,7.0,19.0,82,0.00,,,0.00,Wunderground v.1.15,2013-03-14 14:03:00,
2013-03-14 10:05:00,19.3,14.7,29.73,West,263,5.0,21.0,82,0.00,,,0.00,Wunderground v.1.15,2013-03-14 14:05:00,
2013-03-14 10:06:00,19.4,14.8,29.73,West,275,6.0,21.0,82,0.00,,,0.00,Wunderground v.1.15,2013-03-14 14:06:00,
2013-03-14 10:07:00,19.4,14.2,29.73,West,273,7.0,21.0,80,0.00,,,0.00,Wunderground v.1.15,2013-03-14 14:07:00,
2013-03-14 10:08:00,19.5,14.3,29.73,West,267,12.0,21.0,80,0.00,,,0.00,Wunderground v.1.15,2013-03-14 14:08:00,
2013-03-14 10:10:00,19.4,13.9,29.73,WSW,242,6.0,8.0,79,0.00,,,0.00,Wunderground v.1.15,2013-03-14 14:10:00,
2013-03-14 10:11:00,19.4,13.9,29.73,WSW,258,5.0,8.0,79,0.00,,,0.00,Wunderground v.1.15,2013-03-14 14:11:00,
2013-03-14 10:12:00,19.6,14.4,29.73,West,273,5.0,12.0,80,0.00,,,0.00,Wunderground v.1.15,2013-03-14 14:12:00,
2013-03-14 10:13:00,19.6,14.4,29.73,SSW,205,8.0,12.0,80,0.00,,,0.00,Wunderground v.1.15,2013-03-14 14:13:00,
2013-03-14 10:15:00,19.8,14.6,29.73,NW,306,6.0,12.0,80,0.00,,,0.00,Wunderground v.1.15,2013-03-14 14:15:00,
2013-03-14 10:17:00,19.9,14.7,29.73,West,260,3.0,12.0,80,0.00,,,0.00,Wunderground v.1.15,2013-03-14 14:17:00,
2013-03-14 10:18:00,19.8,14.6,29.73,West,268,7.0,12.0,80,0.00,,,0.00,Wunderground v.1.15,2013-03-14 14:18:00,
2013-03-14 10:20:00,19.9,15.0,29.73,SW,221,4.0,5.0,81,0.00,,,0.00,Wunderground v.1.15,2013-03-14 14:20:00,
2013-03-14 10:22:00,19.9,14.7,29.73,SW,232,5.0,8.0,80,0.00,,,0.00,Wunderground v.1.15,2013-03-14 14:22:00,
2013-03-14 10:23:00,20.0,15.1,29.73,WSW,245,5.0,8.0,81,0.00,,,0.00,Wunderground v.1.15,2013-03-14 14:23:00,
2013-03-14 10:25:00,20.1,15.2,29.73,WSW,253,4.0,8.0,81,0.00,,,0.00,Wunderground v.1.15,2013-03-14 14:25:00,
2013-03-14 10:27:00,20.3,15.7,29.73,West,266,3.0,9.0,82,0.00,,,0.00,Wunderground v.1.15,2013-03-14 14:27:00,
2013-03-14 10:29:00,20.3,15.7,29.73,WSW,252,4.0,9.0,82,0.00,,,0.00,Wunderground v.1.15,2013-03-14 14:29:00,
2013-03-14 10:30:00,20.3,16.0,29.73,West,263,7.0,7.0,83,0.00,,,0.00,Wunderground v.1.15,2013-03-14 14:30:00,
2013-03-14 10:33:00,20.2,15.9,29.73,WNW,283,5.0,7.0,83,0.00,,,0.00,Wunderground v.1.15,2013-03-14 14:33:00,
2013-03-14 10:34:00,20.2,15.9,29.73,WNW,283,5.0,7.0,83,0.00,,,0.00,Wunderground v.1.15,2013-03-14 14:34:00,
2013-03-14 10:35:00,20.0,15.9,29.73,WSW,257,4.0,8.0,84,0.00,,,0.00,Wunderground v.1.15,2013-03-14 14:35:00,
2013-03-14 10:39:00,19.9,15.8,29.73,WNW,284,3.0,8.0,84,0.00,,,0.00,Wunderground v.1.15,2013-03-14 14:39:00,
2013-03-14 10:41:00,19.9,15.8,29.73,WSW,240,5.0,9.0,84,0.00,,,0.00,Wunderground v.1.15,2013-03-14 14:41:00,
2013-03-14 10:44:00,19.9,15.6,29.73,WNW,288,8.0,9.0,83,0.00,,,0.00,Wunderground v.1.15,2013-03-14 14:44:00,
2013-03-14 10:47:00,20.1,15.5,29.73,WNW,286,5.0,9.0,82,0.00,,,0.00,Wunderground v.1.15,2013-03-14 14:47:00,
2013-03-14 10:49:00,20.3,15.4,29.73,West,265,5.0,9.0,81,0.00,,,0.00,Wunderground v.1.15,2013-03-14 14:49:00,
2013-03-14 10:53:00,20.6,14.2,29.73,WSW,256,6.0,12.0,76,0.00,,,0.00,Wunderground v.1.15,2013-03-14 14:53:00,
2013-03-14 10:54:00,20.5,13.5,29.73,West,261,5.0,12.0,74,0.00,,,0.00,Wunderground v.1.15,2013-03-14 14:54:00,
2013-03-14 10:58:00,20.7,13.7,29.73,West,264,6.0,13.0,74,0.00,,,0.00,Wunderground v.1.15,2013-03-14 14:58:00,
2013-03-14 10:59:00,20.9,13.9,29.73,West,265,4.0,13.0,74,0.00,,,0.00,Wunderground v.1.15,2013-03-14 14:59:00,
2013-03-14 11:00:00,20.9,13.9,29.73,WSW,248,7.0,13.0,74,0.00,,,0.00,Wunderground v.1.15,2013-03-14 15:00:00,
2013-03-14 11:03:00,20.9,13.0,29.73,WSW,254,10.0,19.0,71,0.00,,,0.00,Wunderground v.1.15,2013-03-14 15:03:00,
2013-03-14 11:05:00,20.7,12.5,29.73,WSW,249,9.0,19.0,70,0.00,,,0.00,Wunderground v.1.15,2013-03-14 15:05:00,
2013-03-14 11:08:00,20.7,13.1,29.72,West,270,8.0,19.0,72,0.00,,,0.00,Wunderground v.1.15,2013-03-14 15:08:00,
2013-03-14 11:09:00,20.7,13.1,29.72,WSW,248,4.0,19.0,72,0.00,,,0.00,Wunderground v.1.15,2013-03-14 15:09:00,
2013-03-14 11:10:00,20.7,13.1,29.72,West,259,8.0,10.0,72,0.00,,,0.00,Wunderground v.1.15,2013-03-14 15:10:00,
2013-03-14 11:11:00,20.7,13.1,29.73,West,267,3.0,10.0,72,0.00,,,0.00,Wunderground v.1.15,2013-03-14 15:11:00,
2013-03-14 11:13:00,20.9,13.0,29.73,WNW,294,0.0,10.0,71,0.00,,,0.00,Wunderground v.1.15,2013-03-14 15:13:00,
2013-03-14 11:15:00,20.9,13.0,29.73,North,350,6.0,10.0,71,0.00,,,0.00,Wunderground v.1.15,2013-03-14 15:15:00,
2013-03-14 11:16:00,21.0,13.4,29.73,WSW,242,7.0,10.0,72,0.00,,,0.00,Wunderground v.1.15,2013-03-14 15:16:00,
2013-03-14 11:19:00,21.1,13.5,29.73,West,260,6.0,10.0,72,0.00,,,0.00,Wunderground v.1.15,2013-03-14 15:19:00,
2013-03-14 11:20:00,21.2,13.6,29.73,West,263,9.0,12.0,72,0.00,,,0.00,Wunderground v.1.15,2013-03-14 15:20:00,
2013-03-14 11:21:00,21.3,14.0,29.73,WSW,252,5.0,8.0,73,0.00,,,0.00,Wunderground v.1.15,2013-03-14 15:21:00,
2013-03-14 11:24:00,21.6,14.0,29.72,WSW,242,8.0,11.0,72,0.00,,,0.00,Wunderground v.1.15,2013-03-14 15:24:00,
2013-03-14 11:25:00,21.7,13.7,29.72,WSW,246,4.0,11.0,71,0.00,,,0.00,Wunderground v.1.15,2013-03-14 15:25:00,
2013-03-14 11:26:00,21.7,13.7,29.72,SW,217,8.0,11.0,71,0.00,,,0.00,Wunderground v.1.15,2013-03-14 15:26:00,
2013-03-14 11:29:00,21.6,13.3,29.72,West,273,2.0,16.0,70,0.00,,,0.00,Wunderground v.1.15,2013-03-14 15:29:00,
2013-03-14 11:30:00,21.7,14.1,29.72,WSW,257,4.0,6.0,72,0.00,,,0.00,Wunderground v.1.15,2013-03-14 15:30:00,
2013-03-14 11:31:00,21.8,14.5,29.72,West,267,5.0,6.0,73,0.00,,,0.00,Wunderground v.1.15,2013-03-14 15:31:00,
2013-03-14 11:32:00,21.9,14.6,29.72,West,274,6.0,6.0,73,0.00,,,0.00,Wunderground v.1.15,2013-03-14 15:32:00,
2013-03-14 11:34:00,22.1,14.4,29.72,SW,232,2.0,7.0,72,0.00,,,0.00,Wunderground v.1.15,2013-03-14 15:34:00,
2013-03-14 11:35:00,22.1,14.4,29.72,WNW,289,5.0,7.0,72,0.00,,,0.00,Wunderground v.1.15,2013-03-14 15:35:00,
2013-03-14 11:37:00,22.1,14.1,29.72,WSW,257,4.0,8.0,71,0.00,,,0.00,Wunderground v.1.15,2013-03-14 15:37:00,
2013-03-14 11:39:00,21.8,15.1,29.72,WNW,303,4.0,8.0,75,0.00,,,0.00,Wunderground v.1.15,2013-03-14 15:39:00,
2013-03-14 11:41:00,21.7,15.3,29.72,West,277,4.0,7.0,76,0.00,,,0.00,Wunderground v.1.15,2013-03-14 15:41:00,
2013-03-14 11:42:00,21.7,15.6,29.72,WNW,283,4.0,7.0,77,0.00,,,0.00,Wunderground v.1.15,2013-03-14 15:42:00,
2013-03-14 11:44:00,21.8,15.4,29.72,West,276,5.0,9.0,76,0.00,,,0.00,Wunderground v.1.15,2013-03-14 15:44:00,
2013-03-14 11:46:00,21.8,14.8,29.73,West,269,5.0,9.0,74,0.00,,,0.00,Wunderground v.1.15,2013-03-14 15:46:00,
2013-03-14 11:47:00,21.8,14.8,29.72,West,263,6.0,9.0,74,0.00,,,0.00,Wunderground v.1.15,2013-03-14 15:47:00,
2013-03-14 11:48:00,21.6,14.6,29.73,West,267,6.0,9.0,74,0.00,,,0.00,Wunderground v.1.15,2013-03-14 15:48:00,
2013-03-14 11:50:00,21.5,14.5,29.73,WSW,255,7.0,12.0,74,0.00,,,0.00,Wunderground v.1.15,2013-03-14 15:50:00,
2013-03-14 11:52:00,21.4,14.1,29.72,WSW,255,7.0,11.0,73,0.00,,,0.00,Wunderground v.1.15,2013-03-14 15:52:00,
2013-03-14 11:53:00,21.3,14.0,29.72,North,360,7.0,11.0,73,0.00,,,0.00,Wunderground v.1.15,2013-03-14 15:53:00,
2013-03-14 11:54:00,21.5,14.8,29.72,WSW,256,7.0,13.0,75,0.00,,,0.00,Wunderground v.1.15,2013-03-14 15:54:00,
2013-03-14 11:57:00,21.7,15.0,29.72,WNW,289,14.0,14.0,75,0.00,,,0.00,Wunderground v.1.15,2013-03-14 15:57:00,
2013-03-14 11:58:00,21.7,15.0,29.72,West,272,7.0,14.0,75,0.00,,,0.00,Wunderground v.1.15,2013-03-14 15:58:00,
2013-03-14 12:00:00,21.5,14.5,29.72,West,273,5.0,6.0,74,0.00,,,0.00,Wunderground v.1.15,2013-03-14 16:00:00,
2013-03-14 12:02:00,21.6,15.2,29.72,WSW,251,8.0,10.0,76,0.00,,,0.00,Wunderground v.1.15,2013-03-14 16:02:00,
2013-03-14 12:03:00,21.5,14.8,29.72,West,264,6.0,14.0,75,0.00,,,0.00,Wunderground v.1.15,2013-03-14 16:03:00,
2013-03-14 12:05:00,21.4,15.0,29.72,West,277,7.0,14.0,76,0.00,,,0.00,Wunderground v.1.15,2013-03-14 16:05:00,
2013-03-14 12:08:00,21.2,15.1,29.72,North,360,5.0,14.0,77,0.00,,,0.00,Wunderground v.1.15,2013-03-14 16:08:00,
2013-03-14 12:09:00,21.1,15.0,29.72,WSW,241,5.0,14.0,77,0.00,,,0.00,Wunderground v.1.15,2013-03-14 16:09:00,
2013-03-14 12:10:00,21.1,14.7,29.72,WSW,246,3.0,9.0,76,0.00,,,0.00,Wunderground v.1.15,2013-03-14 16:10:00,
2013-03-14 12:13:00,21.2,14.8,29.72,WSW,250,4.0,9.0,76,0.00,,,0.00,Wunderground v.1.15,2013-03-14 16:13:00,
2013-03-14 12:14:00,21.2,14.8,29.72,West,272,4.0,9.0,76,0.00,,,0.00,Wunderground v.1.15,2013-03-14 16:14:00,
2013-03-14 12:15:00,21.4,15.3,29.72,West,269,5.0,10.0,77,0.00,,,0.00,Wunderground v.1.15,2013-03-14 16:15:00,
2013-03-14 12:18:00,21.5,15.1,29.72,West,270,7.0,11.0,76,0.00,,,0.00,Wunderground v.1.15,2013-03-14 16:18:00,
2013-03-14 12:19:00,21.5,14.8,29.72,WNW,282,5.0,13.0,75,0.00,,,0.00,Wunderground v.1.15,2013-03-14 16:19:00,
2013-03-14 12:21:00,21.7,15.3,29.72,West,277,7.0,8.0,76,0.00,,,0.00,Wunderground v.1.15,2013-03-14 16:21:00,
2013-03-14 12:23:00,22.2,15.8,29.72,West,259,6.0,11.0,76,0.00,,,0.00,Wunderground v.1.15,2013-03-14 16:23:00,
2013-03-14 12:24:00,22.4,15.7,29.72,WSW,254,11.0,13.0,75,0.00,,,0.00,Wunderground v.1.15,2013-03-14 16:24:00,
2013-03-14 12:25:00,22.4,15.7,29.71,WSW,242,3.0,13.0,75,0.00,,,0.00,Wunderground v.1.15,2013-03-14 16:25:00,
2013-03-14 12:27:00,22.4,15.7,29.71,WSW,250,5.0,13.0,75,0.00,,,0.00,Wunderground v.1.15,2013-03-14 16:27:00,
2013-03-14 12:28:00,22.0,15.0,29.71,WSW,254,3.0,13.0,74,0.00,,,0.00,Wunderground v.1.15,2013-03-14 16:28:00,
2013-03-14 12:29:00,21.9,15.2,29.71,West,265,7.0,13.0,75,0.00,,,0.00,Wunderground v.1.15,2013-03-14 16:29:00,
2013-03-14 12:30:00,21.8,15.4,29.71,SW,236,3.0,7.0,76,0.00,,,0.00,Wunderground v.1.15,2013-03-14 16:30:00,
2013-03-14 12:32:00,21.6,15.5,29.71,West,261,9.0,9.0,77,0.00,,,0.00,Wunderground v.1.15,2013-03-14 16:32:00,
2013-03-14 12:33:00,21.5,15.4,29.71,West,269,6.0,12.0,77,0.00,,,0.00,Wunderground v.1.15,2013-03-14 16:33:00,
2013-03-14 12:34:00,21.4,15.6,29.71,West,259,4.0,12.0,78,0.00,,,0.00,Wunderground v.1.15,2013-03-14 16:34:00,
2013-03-14 12:36:00,21.6,16.1,29.71,SW,235,3.0,12.0,79,0.00,,,0.00,Wunderground v.1.15,2013-03-14 16:36:00,
2013-03-14 12:37:00,21.7,15.9,29.71,West,270,2.0,12.0,78,0.00,,,0.00,Wunderground v.1.15,2013-03-14 16:37:00,
2013-03-14 12:38:00,22.0,16.5,29.71,West,260,4.0,12.0,79,0.00,,,0.00,Wunderground v.1.15,2013-03-14 16:38:00,
2013-03-14 12:39:00,22.2,16.4,29.71,WNW,289,9.0,12.0,78,0.00,,,0.00,Wunderground v.1.15,2013-03-14 16:39:00,
2013-03-14 12:42:00,21.9,15.5,29.71,West,259,6.0,12.0,76,0.00,,,0.00,Wunderground v.1.15,2013-03-14 16:42:00,
2013-03-14 12:43:00,21.6,15.2,29.72,West,265,5.0,12.0,76,0.00,,,0.00,Wunderground v.1.15,2013-03-14 16:43:00,
2013-03-14 12:45:00,21.5,15.4,29.72,SW,222,5.0,12.0,77,0.00,,,0.00,Wunderground v.1.15,2013-03-14 16:45:00,
2013-03-14 12:47:00,21.4,15.3,29.71,SW,219,7.0,12.0,77,0.00,,,0.00,Wunderground v.1.15,2013-03-14 16:47:00,
2013-03-14 12:49:00,21.3,15.2,29.72,WSW,255,5.0,12.0,77,0.00,,,0.00,Wunderground v.1.15,2013-03-14 16:49:00,
2013-03-14 12:50:00,21.3,15.5,29.72,WNW,285,5.0,12.0,78,0.00,,,0.00,Wunderground v.1.15,2013-03-14 16:50:00,
2013-03-14 12:52:00,21.4,15.6,29.72,WSW,238,5.0,11.0,78,0.00,,,0.00,Wunderground v.1.15,2013-03-14 16:52:00,
2013-03-14 12:54:00,21.6,15.8,29.71,SW,233,9.0,11.0,78,0.00,,,0.00,Wunderground v.1.15,2013-03-14 16:54:00,
2013-03-14 12:55:00,21.7,16.2,29.72,West,269,6.0,13.0,79,0.00,,,0.00,Wunderground v.1.15,2013-03-14 16:55:00,
2013-03-14 12:57:00,22.2,15.8,29.71,WNW,282,6.0,13.0,76,0.00,,,0.00,Wunderground v.1.15,2013-03-14 16:57:00,
2013-03-14 12:58:00,22.2,15.8,29.71,SW,233,9.0,13.0,76,0.00,,,0.00,Wunderground v.1.15,2013-03-14 16:58:00,
2013-03-14 12:59:00,22.2,15.5,29.71,West,275,3.0,15.0,75,0.00,,,0.00,Wunderground v.1.15,2013-03-14 16:59:00,
2013-03-14 13:00:00,22.1,15.4,29.72,WSW,256,7.0,7.0,75,0.00,,,0.00,Wunderground v.1.15,2013-03-14 17:00:00,
2013-03-14 13:02:00,21.9,14.9,29.72,NW,306,6.0,15.0,74,0.00,,,0.00,Wunderground v.1.15,2013-03-14 17:02:00,
2013-03-14 13:03:00,21.7,14.7,29.71,WNW,285,6.0,15.0,74,0.00,,,0.00,Wunderground v.1.15,2013-03-14 17:03:00,
2013-03-14 13:04:00,21.7,15.0,29.71,WSW,254,10.0,17.0,75,0.00,,,0.00,Wunderground v.1.15,2013-03-14 17:04:00,
2013-03-14 13:05:00,21.6,14.9,29.72,WSW,242,6.0,17.0,75,0.00,,,0.00,Wunderground v.1.15,2013-03-14 17:05:00,
2013-03-14 13:08:00,21.5,14.8,29.72,WSW,250,5.0,17.0,75,0.00,,,0.00,Wunderground v.1.15,2013-03-14 17:08:00,
2013-03-14 13:09:00,21.5,15.4,29.71,SW,228,6.0,17.0,77,0.00,,,0.00,Wunderground v.1.15,2013-03-14 17:09:00,
2013-03-14 13:10:00,21.5,15.4,29.72,WSW,254,6.0,6.0,77,0.00,,,0.00,Wunderground v.1.15,2013-03-14 17:10:00,
2013-03-14 13:13:00,21.6,15.8,29.71,SW,225,7.0,15.0,78,0.00,,,0.00,Wunderground v.1.15,2013-03-14 17:13:00,
2013-03-14 13:14:00,21.7,15.3,29.72,WNW,296,6.0,15.0,76,0.00,,,0.00,Wunderground v.1.15,2013-03-14 17:14:00,
2013-03-14 13:15:00,21.7,15.0,29.72,West,274,4.0,15.0,75,0.00,,,0.00,Wunderground v.1.15,2013-03-14 17:15:00,
2013-03-14 13:18:00,22.2,16.1,29.71,NW,313,9.0,15.0,77,0.00,,,0.00,Wunderground v.1.15,2013-03-14 17:18:00,
2013-03-14 13:19:00,22.3,15.6,29.71,NNW,340,3.0,15.0,75,0.00,,,0.00,Wunderground v.1.15,2013-03-14 17:19:00,
2013-03-14 13:20:00,22.4,15.7,29.71,SSW,208,5.0,15.0,75,0.00,,,0.00,Wunderground v.1.15,2013-03-14 17:20:00,
2013-03-14 13:23:00,23.3,15.6,29.71,West,277,8.0,13.0,72,0.00,,,0.00,Wunderground v.1.15,2013-03-14 17:23:00,
2013-03-14 13:24:00,23.5,15.1,29.71,West,265,4.0,13.0,70,0.00,,,0.00,Wunderground v.1.15,2013-03-14 17:24:00,
2013-03-14 13:25:00,23.6,15.6,29.71,West,261,8.0,13.0,71,0.00,,,0.00,Wunderground v.1.15,2013-03-14 17:25:00,
2013-03-14 13:26:00,23.7,15.7,29.71,WSW,251,10.0,13.0,71,0.00,,,0.00,Wunderground v.1.15,2013-03-14 17:26:00,
2013-03-14 13:28:00,23.6,15.2,29.71,WSW,240,7.0,13.0,70,0.00,,,0.00,Wunderground v.1.15,2013-03-14 17:28:00,
2013-03-14 13:30:00,23.5,15.1,29.71,SSW,204,10.0,10.0,70,0.00,,,0.00,Wunderground v.1.15,2013-03-14 17:30:00,
2013-03-14 13:31:00,23.4,15.1,29.71,WSW,250,7.0,12.0,70,0.00,,,0.00,Wunderground v.1.15,2013-03-14 17:31:00,
2013-03-14 13:34:00,22.9,14.9,29.72,WNW,283,6.0,12.0,71,0.00,,,0.00,Wunderground v.1.15,2013-03-14 17:34:00,
2013-03-14 13:35:00,22.9,15.2,29.71,West,276,9.0,12.0,72,0.00,,,0.00,Wunderground v.1.15,2013-03-14 17:35:00,
2013-03-14 13:36:00,22.8,15.4,29.71,West,275,8.0,12.0,73,0.00,,,0.00,Wunderground v.1.15,2013-03-14 17:36:00,
2013-03-14 13:39:00,22.1,15.4,29.72,WNW,283,6.0,12.0,75,0.00,,,0.00,Wunderground v.1.15,2013-03-14 17:39:00,
2013-03-14 13:40:00,21.9,15.2,29.71,WNW,286,3.0,7.0,75,0.00,,,0.00,Wunderground v.1.15,2013-03-14 17:40:00,
2013-03-14 13:41:00,21.9,15.5,29.71,NW,313,4.0,7.0,76,0.00,,,0.00,Wunderground v.1.15,2013-03-14 17:41:00,
2013-03-14 13:42:00,21.7,15.3,29.71,SSW,206,7.0,13.0,76,0.00,,,0.00,Wunderground v.1.15,2013-03-14 17:42:00,
2013-03-14 13:44:00,21.4,15.0,29.71,WSW,248,4.0,13.0,76,0.00,,,0.00,Wunderground v.1.15,2013-03-14 17:44:00,
2013-03-14 13:45:00,21.2,15.1,29.71,SW,235,15.0,15.0,77,0.00,,,0.00,Wunderground v.1.15,2013-03-14 17:45:00,
2013-03-14 13:46:00,21.2,14.8,29.71,West,271,8.0,15.0,76,0.00,,,0.00,Wunderground v.1.15,2013-03-14 17:46:00,
2013-03-14 13:47:00,21.1,14.4,29.71,WSW,246,8.0,15.0,75,0.00,,,0.00,Wunderground v.1.15,2013-03-14 17:47:00,
2013-03-14 13:49:00,21.1,15.0,29.71,West,269,3.0,15.0,77,0.00,,,0.00,Wunderground v.1.15,2013-03-14 17:49:00,
2013-03-14 13:52:00,21.0,14.9,29.71,NNW,348,6.0,14.0,77,0.00,,,0.00,Wunderground v.1.15,2013-03-14 17:52:00,
2013-03-14 13:54:00,20.8,14.7,29.71,WSW,245,7.0,14.0,77,0.00,,,0.00,Wunderground v.1.15,2013-03-14 17:54:00,
2013-03-14 13:57:00,20.7,15.2,29.71,West,263,10.0,14.0,79,0.00,,,0.00,Wunderground v.1.15,2013-03-14 17:57:00,
2013-03-14 14:00:00,20.8,16.2,29.72,NW,306,11.0,11.0,82,0.00,,,0.00,Wunderground v.1.15,2013-03-14 18:00:00,
2013-03-14 14:02:00,20.6,16.3,29.71,NW,315,10.0,12.0,83,0.00,,,0.00,Wunderground v.1.15,2013-03-14 18:02:00,
2013-03-14 14:03:00,20.6,16.5,29.71,West,268,4.0,13.0,84,0.00,,,0.00,Wunderground v.1.15,2013-03-14 18:03:00,
2013-03-14 14:05:00,20.7,17.2,29.71,WSW,257,11.0,13.0,86,0.00,,,0.00,Wunderground v.1.15,2013-03-14 18:05:00,
2013-03-14 14:07:00,21.0,16.9,29.71,WSW,253,10.0,13.0,84,0.00,,,0.00,Wunderground v.1.15,2013-03-14 18:07:00,
2013-03-14 14:08:00,21.1,17.0,29.71,West,270,7.0,13.0,84,0.00,,,0.00,Wunderground v.1.15,2013-03-14 18:08:00,
2013-03-14 14:10:00,21.4,16.8,29.71,West,267,7.0,7.0,82,0.00,,,0.00,Wunderground v.1.15,2013-03-14 18:10:00,
2013-03-14 14:13:00,21.8,16.6,29.70,WSW,258,5.0,10.0,80,0.00,,,0.00,Wunderground v.1.15,2013-03-14 18:13:00,
2013-03-14 14:15:00,21.5,15.7,29.70,West,273,5.0,10.0,78,0.00,,,0.00,Wunderground v.1.15,2013-03-14 18:15:00,
2013-03-14 14:18:00,21.4,15.0,29.70,West,265,4.0,12.0,76,0.00,,,0.00,Wunderground v.1.15,2013-03-14 18:18:00,
2013-03-14 14:20:00,21.5,14.8,29.70,WSW,252,7.0,7.0,75,0.00,,,0.00,Wunderground v.1.15,2013-03-14 18:20:00,
2013-03-14 14:23:00,21.6,14.3,29.70,West,274,9.0,12.0,73,0.00,,,0.00,Wunderground v.1.15,2013-03-14 18:23:00,
2013-03-14 14:24:00,21.6,14.3,29.70,West,270,8.0,12.0,73,0.00,,,0.00,Wunderground v.1.15,2013-03-14 18:24:00,
2013-03-14 14:25:00,21.5,13.9,29.70,WSW,253,11.0,15.0,72,0.00,,,0.00,Wunderground v.1.15,2013-03-14 18:25:00,
2013-03-14 14:28:00,21.0,13.7,29.70,WSW,252,8.0,16.0,73,0.00,,,0.00,Wunderground v.1.15,2013-03-14 18:28:00,
2013-03-14 14:29:00,21.0,13.7,29.70,WSW,248,8.0,16.0,73,0.00,,,0.00,Wunderground v.1.15,2013-03-14 18:29:00,
2013-03-14 14:32:00,21.1,13.5,29.70,WNW,291,5.0,14.0,72,0.00,,,0.00,Wunderground v.1.15,2013-03-14 18:32:00,
2013-03-14 14:34:00,21.2,13.6,29.70,West,279,4.0,14.0,72,0.00,,,0.00,Wunderground v.1.15,2013-03-14 18:34:00,
2013-03-14 14:37:00,21.3,13.7,29.71,West,280,11.0,14.0,72,0.00,,,0.00,Wunderground v.1.15,2013-03-14 18:37:00,
2013-03-14 14:39:00,21.3,13.4,29.71,WSW,239,5.0,18.0,71,0.00,,,0.00,Wunderground v.1.15,2013-03-14 18:39:00,
2013-03-14 14:40:00,21.3,13.4,29.71,WSW,251,6.0,18.0,71,0.00,,,0.00,Wunderground v.1.15,2013-03-14 18:40:00,
2013-03-14 14:43:00,21.4,13.8,29.71,WSW,258,7.0,7.0,72,0.00,,,0.00,Wunderground v.1.15,2013-03-14 18:43:00,
2013-03-14 14:45:00,21.4,13.5,29.71,WNW,294,8.0,13.0,71,0.00,,,0.00,Wunderground v.1.15,2013-03-14 18:45:00,
2013-03-14 14:48:00,21.2,12.9,29.71,West,265,3.0,14.0,70,0.00,,,0.00,Wunderground v.1.15,2013-03-14 18:48:00,
2013-03-14 14:50:00,21.2,12.6,29.71,WNW,284,4.0,14.0,69,0.00,,,0.00,Wunderground v.1.15,2013-03-14 18:50:00,
2013-03-14 14:54:00,21.5,13.2,29.71,WNW,288,4.0,12.0,70,0.00,,,0.00,Wunderground v.1.15,2013-03-14 18:54:00,
2013-03-14 14:55:00,21.5,12.6,29.71,WSW,248,8.0,12.0,68,0.00,,,0.00,Wunderground v.1.15,2013-03-14 18:55:00,
2013-03-14 14:59:00,21.4,12.5,29.70,West,259,8.0,12.0,68,0.00,,,0.00,Wunderground v.1.15,2013-03-14 18:59:00,
2013-03-14 15:00:00,21.3,12.4,29.70,SW,227,8.0,8.0,68,0.00,,,0.00,Wunderground v.1.15,2013-03-14 19:00:00,
2013-03-14 15:02:00,21.2,12.3,29.71,SSW,201,6.0,11.0,68,0.00,,,0.00,Wunderground v.1.15,2013-03-14 19:02:00,
2013-03-14 15:04:00,21.1,12.5,29.71,West,273,5.0,12.0,69,0.00,,,0.00,Wunderground v.1.15,2013-03-14 19:04:00,
2013-03-14 15:05:00,21.0,12.7,29.70,SW,217,9.0,13.0,70,0.00,,,0.00,Wunderground v.1.15,2013-03-14 19:05:00,
2013-03-14 15:06:00,21.0,12.7,29.70,WSW,249,8.0,13.0,70,0.00,,,0.00,Wunderground v.1.15,2013-03-14 19:06:00,
2013-03-14 15:07:00,21.0,12.7,29.70,West,278,2.0,13.0,70,0.00,,,0.00,Wunderground v.1.15,2013-03-14 19:07:00,
2013-03-14 15:09:00,21.2,13.3,29.71,West,259,7.0,13.0,71,0.00,,,0.00,Wunderground v.1.15,2013-03-14 19:09:00,
2013-03-14 15:10:00,21.4,13.8,29.70,WSW,252,7.0,7.0,72,0.00,,,0.00,Wunderground v.1.15,2013-03-14 19:10:00,
2013-03-14 15:12:00,21.5,13.2,29.71,WNW,293,6.0,11.0,70,0.00,,,0.00,Wunderground v.1.15,2013-03-14 19:12:00,
2013-03-14 15:14:00,21.6,12.7,29.71,WSW,254,14.0,17.0,68,0.00,,,0.00,Wunderground v.1.15,2013-03-14 19:14:00,
2013-03-14 15:15:00,21.5,12.2,29.70,West,281,8.0,17.0,67,0.00,,,0.00,Wunderground v.1.15,2013-03-14 19:15:00,
2013-03-14 15:17:00,21.3,12.4,29.71,WSW,239,5.0,17.0,68,0.00,,,0.00,Wunderground v.1.15,2013-03-14 19:17:00,
2013-03-14 15:18:00,21.3,12.4,29.70,WNW,283,7.0,17.0,68,0.00,,,0.00,Wunderground v.1.15,2013-03-14 19:18:00,
2013-03-14 15:20:00,21.3,12.4,29.70,West,262,17.0,17.0,68,0.00,,,0.00,Wunderground v.1.15,2013-03-14 19:20:00,
2013-03-14 15:21:00,21.3,12.4,29.71,WSW,248,6.0,17.0,68,0.00,,,0.00,Wunderground v.1.15,2013-03-14 19:21:00,
2013-03-14 15:23:00,21.0,12.1,29.71,West,265,6.0,17.0,68,0.00,,,0.00,Wunderground v.1.15,2013-03-14 19:23:00,
2013-03-14 15:25:00,21.0,12.1,29.71,West,280,12.0,17.0,68,0.00,,,0.00,Wunderground v.1.15,2013-03-14 19:25:00,
2013-03-14 15:26:00,21.1,11.8,29.71,WSW,249,4.0,17.0,67,0.00,,,0.00,Wunderground v.1.15,2013-03-14 19:26:00,
2013-03-14 15:28:00,21.0,11.8,29.71,WSW,251,10.0,17.0,67,0.00,,,0.00,Wunderground v.1.15,2013-03-14 19:28:00,
2013-03-14 15:30:00,21.0,11.4,29.71,West,281,4.0,17.0,66,0.00,,,0.00,Wunderground v.1.15,2013-03-14 19:30:00,
2013-03-14 15:32:00,21.2,12.6,29.71,SSW,208,10.0,10.0,69,0.00,,,0.00,Wunderground v.1.15,2013-03-14 19:32:00,
2013-03-14 15:33:00,21.4,11.8,29.71,SW,221,9.0,11.0,66,0.00,,,0.00,Wunderground v.1.15,2013-03-14 19:33:00,
2013-03-14 15:35:00,21.4,11.5,29.71,South,189,8.0,13.0,65,0.00,,,0.00,Wunderground v.1.15,2013-03-14 19:35:00,
2013-03-14 15:37:00,21.2,11.6,29.71,West,275,8.0,15.0,66,0.00,,,0.00,Wunderground v.1.15,2013-03-14 19:37:00,
2013-03-14 15:38:00,21.2,11.6,29.71,West,273,15.0,15.0,66,0.00,,,0.00,Wunderground v.1.15,2013-03-14 19:38:00,
2013-03-14 15:39:00,21.2,11.3,29.71,WSW,246,12.0,15.0,65,0.00,,,0.00,Wunderground v.1.15,2013-03-14 19:39:00,
2013-03-14 15:40:00,21.0,10.7,29.71,WNW,293,6.0,8.0,64,0.00,,,0.00,Wunderground v.1.15,2013-03-14 19:40:00,
2013-03-14 15:43:00,20.8,10.9,29.72,West,277,11.0,17.0,65,0.00,,,0.00,Wunderground v.1.15,2013-03-14 19:43:00,
2013-03-14 15:44:00,20.8,10.5,29.72,West,259,6.0,17.0,64,0.00,,,0.00,Wunderground v.1.15,2013-03-14 19:44:00,
2013-03-14 15:45:00,20.7,10.4,29.72,West,276,7.0,17.0,64,0.00,,,0.00,Wunderground v.1.15,2013-03-14 19:45:00,
2013-03-14 15:48:00,20.7,11.1,29.72,West,269,5.0,17.0,66,0.00,,,0.00,Wunderground v.1.15,2013-03-14 19:48:00,
2013-03-14 15:49:00,20.7,11.1,29.72,West,265,11.0,17.0,66,0.00,,,0.00,Wunderground v.1.15,2013-03-14 19:49:00,
2013-03-14 15:50:00,20.5,10.6,29.72,WSW,252,8.0,11.0,65,0.00,,,0.00,Wunderground v.1.15,2013-03-14 19:50:00,
2013-03-14 15:53:00,20.4,10.5,29.72,WNW,295,7.0,16.0,65,0.00,,,0.00,Wunderground v.1.15,2013-03-14 19:53:00,
2013-03-14 15:54:00,20.3,10.4,29.72,West,259,13.0,21.0,65,0.00,,,0.00,Wunderground v.1.15,2013-03-14 19:54:00,
2013-03-14 15:55:00,20.1,10.2,29.72,West,273,14.0,21.0,65,0.00,,,0.00,Wunderground v.1.15,2013-03-14 19:55:00,
2013-03-14 15:58:00,20.1,10.6,29.72,West,278,3.0,21.0,66,0.00,,,0.00,Wunderground v.1.15,2013-03-14 19:58:00,
2013-03-14 15:59:00,20.1,10.6,29.72,WSW,248,8.0,21.0,66,0.00,,,0.00,Wunderground v.1.15,2013-03-14 19:59:00,
2013-03-14 16:01:00,20.1,11.2,29.72,WSW,248,4.0,10.0,68,0.00,,,0.00,Wunderground v.1.15,2013-03-14 20:01:00,
2013-03-14 16:03:00,19.8,10.9,29.72,WNW,282,9.0,20.0,68,0.00,,,0.00,Wunderground v.1.15,2013-03-14 20:03:00,
2013-03-14 16:04:00,19.7,10.8,29.72,SW,216,11.0,20.0,68,0.00,,,0.00,Wunderground v.1.15,2013-03-14 20:04:00,
2013-03-14 16:06:00,19.5,10.6,29.72,West,271,6.0,20.0,68,0.00,,,0.00,Wunderground v.1.15,2013-03-14 20:06:00,
2013-03-14 16:08:00,19.4,10.9,29.72,West,263,5.0,20.0,69,0.00,,,0.00,Wunderground v.1.15,2013-03-14 20:08:00,
2013-03-14 16:09:00,19.5,11.3,29.72,WSW,253,8.0,20.0,70,0.00,,,0.00,Wunderground v.1.15,2013-03-14 20:09:00,
2013-03-14 16:11:00,19.5,11.0,29.72,West,259,13.0,15.0,69,0.00,,,0.00,Wunderground v.1.15,2013-03-14 20:11:00,
2013-03-14 16:13:00,19.5,11.0,29.73,West,267,5.0,15.0,69,0.00,,,0.00,Wunderground v.1.15,2013-03-14 20:13:00,
2013-03-14 16:14:00,19.5,11.0,29.73,West,265,6.0,15.0,69,0.00,,,0.00,Wunderground v.1.15,2013-03-14 20:14:00,
2013-03-14 16:16:00,19.5,11.3,29.73,WSW,250,2.0,15.0,70,0.00,,,0.00,Wunderground v.1.15,2013-03-14 20:16:00,
2013-03-14 16:18:00,19.5,11.6,29.73,West,269,5.0,15.0,71,0.00,,,0.00,Wunderground v.1.15,2013-03-14 20:18:00,
2013-03-14 16:19:00,19.5,11.9,29.73,West,266,4.0,15.0,72,0.00,,,0.00,Wunderground v.1.15,2013-03-14 20:19:00,
2013-03-14 16:21:00,19.3,11.4,29.73,WNW,293,5.0,15.0,71,0.00,,,0.00,Wunderground v.1.15,2013-03-14 20:21:00,
2013-03-14 16:23:00,19.1,11.2,29.73,WNW,287,2.0,15.0,71,0.00,,,0.00,Wunderground v.1.15,2013-03-14 20:23:00,
2013-03-14 16:24:00,19.0,11.5,29.74,West,278,10.0,15.0,72,0.00,,,0.00,Wunderground v.1.15,2013-03-14 20:24:00,
2013-03-14 16:25:00,19.0,11.5,29.73,West,261,12.0,15.0,72,0.00,,,0.00,Wunderground v.1.15,2013-03-14 20:25:00,
2013-03-14 16:26:00,18.8,11.3,29.73,West,268,5.0,17.0,72,0.00,,,0.00,Wunderground v.1.15,2013-03-14 20:26:00,
2013-03-14 16:28:00,18.5,11.0,29.74,WNW,293,5.0,17.0,72,0.00,,,0.00,Wunderground v.1.15,2013-03-14 20:28:00,
2013-03-14 16:30:00,18.3,10.8,29.74,SW,220,7.0,17.0,72,0.00,,,0.00,Wunderground v.1.15,2013-03-14 20:30:00,
2013-03-14 16:32:00,18.0,10.2,29.74,WSW,239,3.0,14.0,71,0.00,,,0.00,Wunderground v.1.15,2013-03-14 20:32:00,
2013-03-14 16:33:00,17.9,10.4,29.74,WNW,294,7.0,14.0,72,0.00,,,0.00,Wunderground v.1.15,2013-03-14 20:33:00,
2013-03-14 16:35:00,17.8,10.6,29.74,West,259,6.0,17.0,73,0.00,,,0.00,Wunderground v.1.15,2013-03-14 20:35:00,
2013-03-14 16:36:00,17.7,10.8,29.74,West,270,8.0,17.0,74,0.00,,,0.00,Wunderground v.1.15,2013-03-14 20:36:00,
2013-03-14 16:37:00,17.7,10.8,29.74,West,275,11.0,17.0,74,0.00,,,0.00,Wunderground v.1.15,2013-03-14 20:37:00,
2013-03-14 16:39:00,17.7,10.5,29.74,West,277,12.0,17.0,73,0.00,,,0.00,Wunderground v.1.15,2013-03-14 20:39:00,
2013-03-14 16:40:00,17.8,10.9,29.74,WNW,284,1.0,7.0,74,0.00,,,0.00,Wunderground v.1.15,2013-03-14 20:40:00,
2013-03-14 16:41:00,17.8,10.6,29.74,NW,306,10.0,11.0,73,0.00,,,0.00,Wunderground v.1.15,2013-03-14 20:41:00,
2013-03-14 16:42:00,17.8,10.6,29.75,SSE,166,5.0,11.0,73,0.00,,,0.00,Wunderground v.1.15,2013-03-14 20:42:00,
2013-03-14 16:45:00,17.7,10.2,29.74,WNW,298,7.0,11.0,72,0.00,,,0.00,Wunderground v.1.15,2013-03-14 20:45:00,
2013-03-14 16:47:00,17.7,10.2,29.74,West,269,9.0,13.0,72,0.00,,,0.00,Wunderground v.1.15,2013-03-14 20:47:00,
2013-03-14 16:50:00,17.4,9.0,29.75,West,259,4.0,8.0,69,0.00,,,0.00,Wunderground v.1.15,2013-03-14 20:50:00,
2013-03-14 16:51:00,17.4,9.0,29.75,WSW,240,5.0,9.0,69,0.00,,,0.00,Wunderground v.1.15,2013-03-14 20:51:00,
2013-03-14 16:52:00,17.3,8.9,29.75,NW,310,12.0,20.0,69,0.00,,,0.00,Wunderground v.1.15,2013-03-14 20:52:00,
2013-03-14 16:55:00,17.2,8.4,29.75,WSW,245,9.0,20.0,68,0.00,,,0.00,Wunderground v.1.15,2013-03-14 20:55:00,
2013-03-14 16:56:00,17.2,8.4,29.75,West,276,4.0,20.0,68,0.00,,,0.00,Wunderground v.1.15,2013-03-14 20:56:00,
2013-03-14 16:57:00,17.2,8.4,29.75,SSW,208,4.0,20.0,68,0.00,,,0.00,Wunderground v.1.15,2013-03-14 20:57:00,
2013-03-14 17:00:00,17.0,7.6,29.75,WNW,293,10.0,10.0,66,0.00,,,0.00,Wunderground v.1.15,2013-03-14 21:00:00,
2013-03-14 17:01:00,17.0,7.6,29.75,WSW,241,8.0,10.0,66,0.00,,,0.00,Wunderground v.1.15,2013-03-14 21:01:00,
2013-03-14 17:02:00,17.1,8.0,29.76,WSW,248,3.0,13.0,67,0.00,,,0.00,Wunderground v.1.15,2013-03-14 21:02:00,
2013-03-14 17:05:00,17.2,8.1,29.75,NW,313,11.0,14.0,67,0.00,,,0.00,Wunderground v.1.15,2013-03-14 21:05:00,
2013-03-14 17:06:00,17.2,8.1,29.75,West,273,5.0,14.0,67,0.00,,,0.00,Wunderground v.1.15,2013-03-14 21:06:00,
2013-03-14 17:07:00,17.2,8.4,29.76,West,273,5.0,14.0,68,0.00,,,0.00,Wunderground v.1.15,2013-03-14 21:07:00,
2013-03-14 17:08:00,17.2,8.1,29.76,West,274,11.0,16.0,67,0.00,,,0.00,Wunderground v.1.15,2013-03-14 21:08:00,
2013-03-14 17:10:00,17.1,7.7,29.75,West,273,12.0,12.0,66,0.00,,,0.00,Wunderground v.1.15,2013-03-14 21:10:00,
2013-03-14 17:12:00,17.0,7.3,29.76,WSW,240,8.0,12.0,65,0.00,,,0.00,Wunderground v.1.15,2013-03-14 21:12:00,
2013-03-14 17:14:00,17.0,7.6,29.76,WNW,301,10.0,19.0,66,0.00,,,0.00,Wunderground v.1.15,2013-03-14 21:14:00,
2013-03-14 17:15:00,17.0,7.6,29.76,West,266,8.0,19.0,66,0.00,,,0.00,Wunderground v.1.15,2013-03-14 21:15:00,
2013-03-14 17:17:00,16.9,7.5,29.76,WNW,300,13.0,19.0,66,0.00,,,0.00,Wunderground v.1.15,2013-03-14 21:17:00,
2013-03-14 17:20:00,16.9,7.5,29.76,WNW,295,9.0,19.0,66,0.00,,,0.00,Wunderground v.1.15,2013-03-14 21:20:00,
2013-03-14 17:21:00,17.0,7.9,29.76,SSW,210,3.0,9.0,67,0.00,,,0.00,Wunderground v.1.15,2013-03-14 21:21:00,
2013-03-14 17:22:00,17.0,7.9,29.76,West,269,6.0,20.0,67,0.00,,,0.00,Wunderground v.1.15,2013-03-14 21:22:00,
2013-03-14 17:23:00,16.9,7.2,29.77,WNW,282,7.0,20.0,65,0.00,,,0.00,Wunderground v.1.15,2013-03-14 21:23:00,
2013-03-14 17:25:00,16.7,7.0,29.76,West,261,5.0,20.0,65,0.00,,,0.00,Wunderground v.1.15,2013-03-14 21:25:00,
2013-03-14 17:26:00,16.7,7.3,29.76,WSW,253,8.0,20.0,66,0.00,,,0.00,Wunderground v.1.15,2013-03-14 21:26:00,
2013-03-14 17:28:00,16.5,7.1,29.76,West,261,5.0,20.0,66,0.00,,,0.00,Wunderground v.1.15,2013-03-14 21:28:00,
2013-03-14 17:30:00,16.3,6.6,29.77,NNW,344,7.0,7.0,65,0.00,,,0.00,Wunderground v.1.15,2013-03-14 21:30:00,
2013-03-14 17:31:00,16.3,6.6,29.76,WSW,250,6.0,16.0,65,0.00,,,0.00,Wunderground v.1.15,2013-03-14 21:31:00,
2013-03-14 17:33:00,16.2,6.8,29.77,NW,314,8.0,16.0,66,0.00,,,0.00,Wunderground v.1.15,2013-03-14 21:33:00,
2013-03-14 17:35:00,16.1,7.1,29.77,West,267,7.0,16.0,67,0.00,,,0.00,Wunderground v.1.15,2013-03-14 21:35:00,
2013-03-14 17:37:00,16.2,7.2,29.77,West,271,3.0,16.0,67,0.00,,,0.00,Wunderground v.1.15,2013-03-14 21:37:00,
2013-03-14 17:38:00,16.2,7.5,29.77,NW,310,7.0,16.0,68,0.00,,,0.00,Wunderground v.1.15,2013-03-14 21:38:00,
2013-03-14 17:39:00,16.3,7.6,29.77,NNW,333,3.0,16.0,68,0.00,,,0.00,Wunderground v.1.15,2013-03-14 21:39:00,
2013-03-14 17:40:00,16.3,7.6,29.77,WSW,256,12.0,13.0,68,0.00,,,0.00,Wunderground v.1.15,2013-03-14 21:40:00,
2013-03-14 17:42:00,16.2,6.8,29.77,WNW,299,10.0,13.0,66,0.00,,,0.00,Wunderground v.1.15,2013-03-14 21:42:00,
2013-03-14 17:43:00,16.2,6.8,29.77,WSW,252,9.0,14.0,66,0.00,,,0.00,Wunderground v.1.15,2013-03-14 21:43:00,
2013-03-14 17:44:00,16.1,6.7,29.77,West,279,8.0,14.0,66,0.00,,,0.00,Wunderground v.1.15,2013-03-14 21:44:00,
2013-03-14 17:45:00,16.1,6.7,29.77,West,261,5.0,14.0,66,0.00,,,0.00,Wunderground v.1.15,2013-03-14 21:45:00,
2013-03-14 17:47:00,16.0,7.3,29.77,WSW,248,6.0,17.0,68,0.00,,,0.00,Wunderground v.1.15,2013-03-14 21:47:00,
2013-03-14 17:48:00,16.0,7.3,29.78,SW,227,9.0,17.0,68,0.00,,,0.00,Wunderground v.1.15,2013-03-14 21:48:00,
2013-03-14 17:49:00,16.0,7.3,29.77,SW,227,9.0,17.0,68,0.00,,,0.00,Wunderground v.1.15,2013-03-14 21:49:00,
2013-03-14 17:51:00,15.7,7.0,29.78,West,281,8.0,13.0,68,0.00,,,0.00,Wunderground v.1.15,2013-03-14 21:51:00,
2013-03-14 17:53:00,15.6,6.9,29.78,NW,313,3.0,13.0,68,0.00,,,0.00,Wunderground v.1.15,2013-03-14 21:53:00,
2013-03-14 17:54:00,15.5,7.1,29.78,WSW,247,9.0,13.0,69,0.00,,,0.00,Wunderground v.1.15,2013-03-14 21:54:00,
2013-03-14 17:57:00,15.5,7.1,29.78,West,279,4.0,13.0,69,0.00,,,0.00,Wunderground v.1.15,2013-03-14 21:57:00,
2013-03-14 17:58:00,15.4,7.4,29.78,WNW,288,11.0,13.0,70,0.00,,,0.00,Wunderground v.1.15,2013-03-14 21:58:00,
2013-03-14 18:00:00,15.4,7.4,29.78,WSW,244,4.0,7.0,70,0.00,,,0.00,Wunderground v.1.15,2013-03-14 22:00:00,
2013-03-14 18:02:00,15.4,7.4,29.78,WSW,257,2.0,8.0,70,0.00,,,0.00,Wunderground v.1.15,2013-03-14 22:02:00,
2013-03-14 18:03:00,15.4,7.7,29.78,West,262,5.0,12.0,71,0.00,,,0.00,Wunderground v.1.15,2013-03-14 22:03:00,
2013-03-14 18:05:00,15.3,7.6,29.78,WSW,250,11.0,13.0,71,0.00,,,0.00,Wunderground v.1.15,2013-03-14 22:05:00,
2013-03-14 18:07:00,15.2,7.8,29.78,West,276,14.0,14.0,72,0.00,,,0.00,Wunderground v.1.15,2013-03-14 22:07:00,
2013-03-14 18:08:00,15.2,7.8,29.78,WSW,254,7.0,14.0,72,0.00,,,0.00,Wunderground v.1.15,2013-03-14 22:08:00,
2013-03-14 18:09:00,15.1,7.7,29.78,West,260,8.0,14.0,72,0.00,,,0.00,Wunderground v.1.15,2013-03-14 22:09:00,
2013-03-14 18:11:00,15.0,7.9,29.78,SW,231,13.0,17.0,73,0.00,,,0.00,Wunderground v.1.15,2013-03-14 22:11:00,
2013-03-14 18:12:00,14.9,8.1,29.78,SW,233,12.0,17.0,74,0.00,,,0.00,Wunderground v.1.15,2013-03-14 22:12:00,
2013-03-14 18:13:00,14.9,8.1,29.79,WSW,241,8.0,17.0,74,0.00,,,0.00,Wunderground v.1.15,2013-03-14 22:13:00,
2013-03-14 18:14:00,14.9,8.1,29.79,NW,323,8.0,17.0,74,0.00,,,0.00,Wunderground v.1.15,2013-03-14 22:14:00,
2013-03-14 18:16:00,14.8,8.0,29.79,West,262,6.0,17.0,74,0.00,,,0.00,Wunderground v.1.15,2013-03-14 22:16:00,
2013-03-14 18:18:00,14.8,8.6,29.79,WNW,287,1.0,17.0,76,0.00,,,0.00,Wunderground v.1.15,2013-03-14 22:18:00,
2013-03-14 18:19:00,14.8,8.6,29.79,West,281,2.0,17.0,76,0.00,,,0.00,Wunderground v.1.15,2013-03-14 22:19:00,
2013-03-14 18:21:00,14.7,8.5,29.79,NNW,338,11.0,13.0,76,0.00,,,0.00,Wunderground v.1.15,2013-03-14 22:21:00,
2013-03-14 18:23:00,14.7,8.8,29.79,WNW,292,7.0,13.0,77,0.00,,,0.00,Wunderground v.1.15,2013-03-14 22:23:00,
2013-03-14 18:24:00,14.6,8.7,29.79,West,269,5.0,13.0,77,0.00,,,0.00,Wunderground v.1.15,2013-03-14 22:24:00,
2013-03-14 18:26:00,14.6,9.0,29.80,West,271,9.0,13.0,78,0.00,,,0.00,Wunderground v.1.15,2013-03-14 22:26:00,
2013-03-14 18:28:00,14.6,9.0,29.79,WSW,257,7.0,13.0,78,0.00,,,0.00,Wunderground v.1.15,2013-03-14 22:28:00,
2013-03-14 18:29:00,14.5,9.2,29.79,WNW,289,6.0,18.0,79,0.00,,,0.00,Wunderground v.1.15,2013-03-14 22:29:00,
2013-03-14 18:32:00,14.4,9.4,29.79,NW,315,4.0,11.0,80,0.00,,,0.00,Wunderground v.1.15,2013-03-14 22:32:00,
2013-03-14 18:33:00,14.4,9.1,29.80,West,261,9.0,11.0,79,0.00,,,0.00,Wunderground v.1.15,2013-03-14 22:33:00,
2013-03-14 18:34:00,14.4,9.1,29.79,West,277,3.0,11.0,79,0.00,,,0.00,Wunderground v.1.15,2013-03-14 22:34:00,
2013-03-14 18:37:00,14.3,9.0,29.80,WNW,282,5.0,14.0,79,0.00,,,0.00,Wunderground v.1.15,2013-03-14 22:37:00,
2013-03-14 18:38:00,14.3,9.3,29.80,WSW,246,7.0,14.0,80,0.00,,,0.00,Wunderground v.1.15,2013-03-14 22:38:00,
2013-03-14 18:39:00,14.3,9.3,29.80,NW,304,8.0,14.0,80,0.00,,,0.00,Wunderground v.1.15,2013-03-14 22:39:00,
2013-03-14 18:42:00,14.2,9.2,29.80,NNW,327,5.0,12.0,80,0.00,,,0.00,Wunderground v.1.15,2013-03-14 22:42:00,
2013-03-14 18:43:00,14.2,9.2,29.80,South,186,3.0,12.0,80,0.00,,,0.00,Wunderground v.1.15,2013-03-14 22:43:00,
2013-03-14 18:44:00,14.1,9.1,29.80,West,260,4.0,12.0,80,0.00,,,0.00,Wunderground v.1.15,2013-03-14 22:44:00,
2013-03-14 18:45:00,14.1,9.1,29.80,WNW,289,7.0,12.0,80,0.00,,,0.00,Wunderground v.1.15,2013-03-14 22:45:00,
2013-03-14 18:47:00,14.0,8.7,29.80,WSW,257,7.0,14.0,79,0.00,,,0.00,Wunderground v.1.15,2013-03-14 22:47:00,
2013-03-14 18:48:00,14.0,8.7,29.80,WSW,250,3.0,14.0,79,0.00,,,0.00,Wunderground v.1.15,2013-03-14 22:48:00,
2013-03-14 18:49:00,14.1,8.8,29.80,West,261,7.0,14.0,79,0.00,,,0.00,Wunderground v.1.15,2013-03-14 22:49:00,
2013-03-14 18:50:00,14.0,8.7,29.80,West,269,7.0,9.0,79,0.00,,,0.00,Wunderground v.1.15,2013-03-14 22:50:00,
2013-03-14 18:52:00,14.0,8.7,29.80,West,271,6.0,10.0,79,0.00,,,0.00,Wunderground v.1.15,2013-03-14 22:52:00,
2013-03-14 18:53:00,13.9,8.6,29.81,WSW,252,7.0,13.0,79,0.00,,,0.00,Wunderground v.1.15,2013-03-14 22:53:00,
2013-03-14 18:55:00,13.9,8.3,29.81,SW,221,10.0,13.0,78,0.00,,,0.00,Wunderground v.1.15,2013-03-14 22:55:00,
2013-03-14 18:56:00,13.9,8.3,29.80,West,275,6.0,15.0,78,0.00,,,0.00,Wunderground v.1.15,2013-03-14 22:56:00,
2013-03-14 18:57:00,13.8,8.2,29.81,SSW,208,7.0,15.0,78,0.00,,,0.00,Wunderground v.1.15,2013-03-14 22:57:00,
2013-03-14 18:58:00,13.8,8.2,29.81,West,274,8.0,15.0,78,0.00,,,0.00,Wunderground v.1.15,2013-03-14 22:58:00,
2013-03-14 19:00:00,13.8,8.2,29.81,WSW,244,3.0,6.0,78,0.00,,,0.00,Wunderground v.1.15,2013-03-14 23:00:00,
2013-03-14 19:01:00,13.7,8.1,29.81,WNW,298,10.0,10.0,78,0.00,,,0.00,Wunderground v.1.15,2013-03-14 23:01:00,
2013-03-14 19:02:00,13.8,8.2,29.81,West,270,6.0,10.0,78,0.00,,,0.00,Wunderground v.1.15,2013-03-14 23:02:00,
2013-03-14 19:04:00,13.7,8.1,29.81,WNW,302,4.0,12.0,78,0.00,,,0.00,Wunderground v.1.15,2013-03-14 23:04:00,
2013-03-14 19:05:00,13.7,7.8,29.81,West,268,8.0,12.0,77,0.00,,,0.00,Wunderground v.1.15,2013-03-14 23:05:00,
2013-03-14 19:07:00,13.7,8.1,29.81,WNW,286,2.0,12.0,78,0.00,,,0.00,Wunderground v.1.15,2013-03-14 23:07:00,
2013-03-14 19:08:00,13.7,8.1,29.81,SW,232,6.0,12.0,78,0.00,,,0.00,Wunderground v.1.15,2013-03-14 23:08:00,
2013-03-14 19:09:00,13.7,8.1,29.81,WNW,285,4.0,12.0,78,0.00,,,0.00,Wunderground v.1.15,2013-03-14 23:09:00,
2013-03-14 19:10:00,13.7,8.1,29.81,West,277,2.0,5.0,78,0.00,,,0.00,Wunderground v.1.15,2013-03-14 23:10:00,
2013-03-14 19:12:00,13.7,8.1,29.81,West,263,4.0,5.0,78,0.00,,,0.00,Wunderground v.1.15,2013-03-14 23:12:00,
2013-03-14 19:13:00,13.7,8.1,29.81,South,190,7.0,8.0,78,0.00,,,0.00,Wunderground v.1.15,2013-03-14 23:13:00,
2013-03-14 19:14:00,13.7,8.1,29.81,WSW,239,11.0,11.0,78,0.00,,,0.00,Wunderground v.1.15,2013-03-14 23:14:00,
2013-03-14 19:17:00,13.7,8.1,29.81,WSW,238,6.0,14.0,78,0.00,,,0.00,Wunderground v.1.15,2013-03-14 23:17:00,
2013-03-14 19:18:00,13.6,8.0,29.81,West,280,1.0,14.0,78,0.00,,,0.00,Wunderground v.1.15,2013-03-14 23:18:00,
2013-03-14 19:20:00,13.6,8.3,29.81,SSW,207,5.0,10.0,79,0.00,,,0.00,Wunderground v.1.15,2013-03-14 23:20:00,
2013-03-14 19:22:00,13.6,8.0,29.81,SW,232,3.0,10.0,78,0.00,,,0.00,Wunderground v.1.15,2013-03-14 23:22:00,
2013-03-14 19:23:00,13.6,8.0,29.81,SW,232,3.0,10.0,78,0.00,,,0.00,Wunderground v.1.15,2013-03-14 23:23:00,
2013-03-14 19:24:00,13.6,8.0,29.82,West,270,5.0,10.0,78,0.00,,,0.00,Wunderground v.1.15,2013-03-14 23:24:00,
2013-03-14 19:25:00,13.5,7.9,29.82,West,271,3.0,10.0,78,0.00,,,0.00,Wunderground v.1.15,2013-03-14 23:25:00,
2013-03-14 19:27:00,13.5,8.2,29.82,WSW,257,4.0,10.0,79,0.00,,,0.00,Wunderground v.1.15,2013-03-14 23:27:00,
2013-03-14 19:28:00,13.4,7.8,29.82,SSW,212,3.0,10.0,78,0.00,,,0.00,Wunderground v.1.15,2013-03-14 23:28:00,
2013-03-14 19:29:00,13.4,7.8,29.82,WSW,245,5.0,10.0,78,0.00,,,0.00,Wunderground v.1.15,2013-03-14 23:29:00,
2013-03-14 19:30:00,13.4,7.8,29.82,West,277,5.0,10.0,78,0.00,,,0.00,Wunderground v.1.15,2013-03-14 23:30:00,
2013-03-14 19:32:00,13.4,7.8,29.82,SW,234,5.0,10.0,78,0.00,,,0.00,Wunderground v.1.15,2013-03-14 23:32:00,
2013-03-14 19:33:00,13.4,7.8,29.82,SW,220,5.0,10.0,78,0.00,,,0.00,Wunderground v.1.15,2013-03-14 23:33:00,
2013-03-14 19:34:00,13.4,7.8,29.82,NW,309,3.0,10.0,78,0.00,,,0.00,Wunderground v.1.15,2013-03-14 23:34:00,
2013-03-14 19:35:00,13.4,7.5,29.82,WNW,288,6.0,10.0,77,0.00,,,0.00,Wunderground v.1.15,2013-03-14 23:35:00,
2013-03-14 19:38:00,13.4,7.5,29.82,West,267,4.0,11.0,77,0.00,,,0.00,Wunderground v.1.15,2013-03-14 23:38:00,
2013-03-14 19:39:00,13.5,7.6,29.82,West,265,11.0,13.0,77,0.00,,,0.00,Wunderground v.1.15,2013-03-14 23:39:00,
2013-03-14 19:41:00,13.4,7.5,29.82,WNW,296,7.0,9.0,77,0.00,,,0.00,Wunderground v.1.15,2013-03-14 23:41:00,
2013-03-14 19:43:00,13.4,7.8,29.82,NNW,345,2.0,11.0,78,0.00,,,0.00,Wunderground v.1.15,2013-03-14 23:43:00,
2013-03-14 19:44:00,13.4,7.8,29.82,South,190,5.0,14.0,78,0.00,,,0.00,Wunderground v.1.15,2013-03-14 23:44:00,
2013-03-14 19:45:00,13.4,7.8,29.82,WSW,239,7.0,14.0,78,0.00,,,0.00,Wunderground v.1.15,2013-03-14 23:45:00,
2013-03-14 19:46:00,13.3,7.7,29.82,NW,317,3.0,14.0,78,0.00,,,0.00,Wunderground v.1.15,2013-03-14 23:46:00,
2013-03-14 19:48:00,13.3,7.7,29.82,WSW,256,8.0,14.0,78,0.00,,,0.00,Wunderground v.1.15,2013-03-14 23:48:00,
2013-03-14 19:49:00,13.3,7.7,29.82,West,281,8.0,14.0,78,0.00,,,0.00,Wunderground v.1.15,2013-03-14 23:49:00,
2013-03-14 19:50:00,13.3,7.7,29.82,WSW,250,5.0,10.0,78,0.00,,,0.00,Wunderground v.1.15,2013-03-14 23:50:00,
2013-03-14 19:52:00,13.2,7.6,29.82,SW,236,2.0,16.0,78,0.00,,,0.00,Wunderground v.1.15,2013-03-14 23:52:00,
2013-03-14 19:53:00,13.2,7.9,29.82,West,263,4.0,16.0,79,0.00,,,0.00,Wunderground v.1.15,2013-03-14 23:53:00,
2013-03-14 19:54:00,13.2,7.9,29.82,WSW,257,0.0,16.0,79,0.00,,,0.00,Wunderground v.1.15,2013-03-14 23:54:00,
2013-03-14 19:55:00,13.2,7.9,29.82,WSW,243,5.0,16.0,79,0.00,,,0.00,Wunderground v.1.15,2013-03-14 23:55:00,
2013-03-14 19:57:00,13.2,7.9,29.82,West,276,2.0,16.0,79,0.00,,,0.00,Wunderground v.1.15,2013-03-14 23:57:00,
2013-03-14 19:58:00,13.1,7.8,29.82,West,264,5.0,16.0,79,0.00,,,0.00,Wunderground v.1.15,2013-03-14 23:58:00,
2013-03-14 19:59:00,13.1,8.1,29.82,West,270,10.0,16.0,80,0.00,,,0.00,Wunderground v.1.15,2013-03-14 23:59:00,
2013-03-14 20:00:00,13.1,8.1,29.82,West,279,2.0,5.0,80,0.00,,,0.00,Wunderground v.1.15,2013-03-15 00:00:00,
2013-03-14 20:02:00,13.0,8.0,29.82,West,280,6.0,8.0,80,0.00,,,0.00,Wunderground v.1.15,2013-03-15 00:02:00,
2013-03-14 20:04:00,13.0,8.0,29.82,WSW,252,3.0,12.0,80,0.00,,,0.00,Wunderground v.1.15,2013-03-15 00:04:00,
2013-03-14 20:05:00,13.0,8.3,29.82,ENE,74,5.0,12.0,81,0.00,,,0.00,Wunderground v.1.15,2013-03-15 00:05:00,
2013-03-14 20:08:00,13.0,8.3,29.82,WSW,256,5.0,12.0,81,0.00,,,0.00,Wunderground v.1.15,2013-03-15 00:08:00,
2013-03-14 20:09:00,13.0,8.3,29.82,WNW,286,3.0,12.0,81,0.00,,,0.00,Wunderground v.1.15,2013-03-15 00:09:00,
2013-03-14 20:10:00,13.0,8.3,29.82,WNW,298,3.0,4.0,81,0.00,,,0.00,Wunderground v.1.15,2013-03-15 00:10:00,
2013-03-14 20:13:00,12.9,8.4,29.82,West,264,3.0,9.0,82,0.00,,,0.00,Wunderground v.1.15,2013-03-15 00:13:00,
2013-03-14 20:15:00,13.0,8.5,29.82,WNW,289,4.0,9.0,82,0.00,,,0.00,Wunderground v.1.15,2013-03-15 00:15:00,
2013-03-14 20:18:00,12.9,8.4,29.82,West,275,3.0,9.0,82,0.00,,,0.00,Wunderground v.1.15,2013-03-15 00:18:00,
2013-03-14 20:20:00,12.9,8.4,29.82,WNW,288,3.0,5.0,82,0.00,,,0.00,Wunderground v.1.15,2013-03-15 00:20:00,
2013-03-14 20:22:00,12.9,8.7,29.82,West,266,3.0,5.0,83,0.00,,,0.00,Wunderground v.1.15,2013-03-15 00:22:00,
2013-03-14 20:23:00,12.9,8.7,29.82,WNW,298,3.0,10.0,83,0.00,,,0.00,Wunderground v.1.15,2013-03-15 00:23:00,
2013-03-14 20:25:00,12.9,8.7,29.82,West,271,4.0,10.0,83,0.00,,,0.00,Wunderground v.1.15,2013-03-15 00:25:00,
2013-03-14 20:27:00,12.9,8.7,29.82,WNW,282,3.0,10.0,83,0.00,,,0.00,Wunderground v.1.15,2013-03-15 00:27:00,
2013-03-14 20:28:00,12.8,8.6,29.82,WNW,284,4.0,10.0,83,0.00,,,0.00,Wunderground v.1.15,2013-03-15 00:28:00,
2013-03-14 20:31:00,12.8,8.6,29.82,WNW,286,2.0,4.0,83,0.00,,,0.00,Wunderground v.1.15,2013-03-15 00:31:00,
2013-03-14 20:32:00,12.8,8.9,29.82,WSW,255,5.0,6.0,84,0.00,,,0.00,Wunderground v.1.15,2013-03-15 00:32:00,
2013-03-14 20:33:00,12.8,8.9,29.82,NW,312,5.0,9.0,84,0.00,,,0.00,Wunderground v.1.15,2013-03-15 00:33:00,
2013-03-14 20:36:00,12.8,8.9,29.82,West,259,5.0,9.0,84,0.00,,,0.00,Wunderground v.1.15,2013-03-15 00:36:00,
2013-03-14 20:37:00,12.8,8.9,29.81,West,265,4.0,9.0,84,0.00,,,0.00,Wunderground v.1.15,2013-03-15 00:37:00,
2013-03-14 20:38:00,12.8,8.9,29.82,West,270,2.0,9.0,84,0.00,,,0.00,Wunderground v.1.15,2013-03-15 00:38:00,
2013-03-14 20:41:00,12.8,8.9,29.82,West,275,5.0,9.0,84,0.00,,,0.00,Wunderground v.1.15,2013-03-15 00:41:00,
2013-03-14 20:42:00,12.8,8.9,29.82,West,271,4.0,9.0,84,0.00,,,0.00,Wunderground v.1.15,2013-03-15 00:42:00,
2013-03-14 20:43:00,12.8,8.9,29.82,West,275,6.0,9.0,84,0.00,,,0.00,Wunderground v.1.15,2013-03-15 00:43:00,
2013-03-14 20:46:00,12.8,8.9,29.82,WNW,301,5.0,12.0,84,0.00,,,0.00,Wunderground v.1.15,2013-03-15 00:46:00,
2013-03-14 20:47:00,12.8,8.9,29.82,West,266,1.0,12.0,84,0.00,,,0.00,Wunderground v.1.15,2013-03-15 00:47:00,
2013-03-14 20:48:00,12.8,8.9,29.82,WNW,288,1.0,12.0,84,0.00,,,0.00,Wunderground v.1.15,2013-03-15 00:48:00,
2013-03-14 20:49:00,12.8,8.9,29.82,West,274,5.0,12.0,84,0.00,,,0.00,Wunderground v.1.15,2013-03-15 00:49:00,
2013-03-14 20:51:00,12.9,9.0,29.82,West,277,3.0,4.0,84,0.00,,,0.00,Wunderground v.1.15,2013-03-15 00:51:00,
2013-03-14 20:52:00,12.8,8.9,29.82,SW,236,0.0,4.0,84,0.00,,,0.00,Wunderground v.1.15,2013-03-15 00:52:00,
2013-03-14 20:53:00,12.8,8.9,29.82,SW,236,0.0,4.0,84,0.00,,,0.00,Wunderground v.1.15,2013-03-15 00:53:00,
2013-03-14 20:54:00,12.9,9.0,29.82,WNW,290,3.0,4.0,84,0.00,,,0.00,Wunderground v.1.15,2013-03-15 00:54:00,
2013-03-14 20:57:00,12.9,9.0,29.82,West,280,0.0,10.0,84,0.00,,,0.00,Wunderground v.1.15,2013-03-15 00:57:00,
2013-03-14 20:58:00,12.8,8.9,29.82,West,267,4.0,10.0,84,0.00,,,0.00,Wunderground v.1.15,2013-03-15 00:58:00,
2013-03-14 20:59:00,12.9,9.0,29.82,West,267,5.0,10.0,84,0.00,,,0.00,Wunderground v.1.15,2013-03-15 00:59:00,
2013-03-14 21:02:00,12.8,9.1,29.82,West,276,2.0,6.0,85,0.00,,,0.00,Wunderground v.1.15,2013-03-15 01:02:00,
2013-03-14 21:03:00,12.8,9.1,29.82,WSW,250,5.0,6.0,85,0.00,,,0.00,Wunderground v.1.15,2013-03-15 01:03:00,
2013-03-14 21:04:00,12.8,9.1,29.82,WSW,239,5.0,6.0,85,0.00,,,0.00,Wunderground v.1.15,2013-03-15 01:04:00,
2013-03-14 21:07:00,12.9,9.2,29.82,WSW,248,3.0,8.0,85,0.00,,,0.00,Wunderground v.1.15,2013-03-15 01:07:00,
2013-03-14 21:08:00,12.9,9.2,29.82,West,269,2.0,8.0,85,0.00,,,0.00,Wunderground v.1.15,2013-03-15 01:08:00,
2013-03-14 21:10:00,12.8,9.1,29.82,SW,221,4.0,8.0,85,0.00,,,0.00,Wunderground v.1.15,2013-03-15 01:10:00,
2013-03-14 21:12:00,12.9,9.5,29.82,WNW,298,1.0,7.0,86,0.00,,,0.00,Wunderground v.1.15,2013-03-15 01:12:00,
2013-03-14 21:13:00,12.9,9.2,29.82,South,185,4.0,7.0,85,0.00,,,0.00,Wunderground v.1.15,2013-03-15 01:13:00,
2013-03-14 21:15:00,12.9,9.5,29.82,West,262,5.0,9.0,86,0.00,,,0.00,Wunderground v.1.15,2013-03-15 01:15:00,
2013-03-14 21:18:00,13.0,9.3,29.82,NW,317,3.0,9.0,85,0.00,,,0.00,Wunderground v.1.15,2013-03-15 01:18:00,
2013-03-14 21:20:00,13.0,9.3,29.82,West,271,2.0,5.0,85,0.00,,,0.00,Wunderground v.1.15,2013-03-15 01:20:00,
2013-03-14 21:23:00,13.0,9.6,29.82,West,263,4.0,8.0,86,0.00,,,0.00,Wunderground v.1.15,2013-03-15 01:23:00,
2013-03-14 21:24:00,13.0,9.6,29.82,WSW,250,6.0,8.0,86,0.00,,,0.00,Wunderground v.1.15,2013-03-15 01:24:00,
2013-03-14 21:26:00,13.0,9.6,29.82,NNW,328,8.0,8.0,86,0.00,,,0.00,Wunderground v.1.15,2013-03-15 01:26:00,
2013-03-14 21:28:00,13.1,9.7,29.82,WSW,245,4.0,8.0,86,0.00,,,0.00,Wunderground v.1.15,2013-03-15 01:28:00,
2013-03-14 21:29:00,13.0,9.6,29.82,West,269,5.0,8.0,86,0.00,,,0.00,Wunderground v.1.15,2013-03-15 01:29:00,
2013-03-14 21:31:00,13.0,9.9,29.82,NW,321,5.0,8.0,87,0.00,,,0.00,Wunderground v.1.15,2013-03-15 01:31:00,
2013-03-14 21:33:00,13.0,9.9,29.82,West,273,3.0,11.0,87,0.00,,,0.00,Wunderground v.1.15,2013-03-15 01:33:00,
2013-03-14 21:34:00,13.1,10.0,29.82,West,279,5.0,11.0,87,0.00,,,0.00,Wunderground v.1.15,2013-03-15 01:34:00,
2013-03-14 21:37:00,13.1,10.0,29.82,SW,235,4.0,11.0,87,0.00,,,0.00,Wunderground v.1.15,2013-03-15 01:37:00,
2013-03-14 21:38:00,13.1,10.0,29.82,West,279,0.0,11.0,87,0.00,,,0.00,Wunderground v.1.15,2013-03-15 01:38:00,
2013-03-14 21:39:00,13.1,10.0,29.82,WSW,254,5.0,11.0,87,0.00,,,0.00,Wunderground v.1.15,2013-03-15 01:39:00,
2013-03-14 21:42:00,13.2,10.3,29.82,WNW,286,0.0,5.0,88,0.00,,,0.00,Wunderground v.1.15,2013-03-15 01:42:00,
2013-03-14 21:44:00,13.2,10.3,29.82,WNW,296,1.0,7.0,88,0.00,,,0.00,Wunderground v.1.15,2013-03-15 01:44:00,
2013-03-14 21:47:00,13.2,10.3,29.82,WNW,294,0.0,7.0,88,0.00,,,0.00,Wunderground v.1.15,2013-03-15 01:47:00,
2013-03-14 21:49:00,13.2,10.3,29.82,West,269,6.0,9.0,88,0.00,,,0.00,Wunderground v.1.15,2013-03-15 01:49:00,
2013-03-14 21:50:00,13.2,10.3,29.82,NW,307,0.0,9.0,88,0.00,,,0.00,Wunderground v.1.15,2013-03-15 01:50:00,
2013-03-14 21:52:00,13.2,10.3,29.82,NW,306,0.0,6.0,88,0.00,,,0.00,Wunderground v.1.15,2013-03-15 01:52:00,
2013-03-14 21:54:00,13.1,10.5,29.82,West,281,4.0,6.0,89,0.00,,,0.00,Wunderground v.1.15,2013-03-15 01:54:00,
2013-03-14 21:55:00,13.2,10.6,29.82,WNW,288,1.0,6.0,89,0.00,,,0.00,Wunderground v.1.15,2013-03-15 01:55:00,
2013-03-14 21:57:00,13.1,10.5,29.82,WSW,242,5.0,10.0,89,0.00,,,0.00,Wunderground v.1.15,2013-03-15 01:57:00,
2013-03-14 22:00:00,13.1,10.5,29.82,WSW,250,2.0,15.0,89,0.00,,,0.00,Wunderground v.1.15,2013-03-15 02:00:00,
2013-03-14 22:03:00,13.0,10.4,29.82,NW,318,3.0,5.0,89,0.00,,,0.00,Wunderground v.1.15,2013-03-15 02:03:00,
2013-03-14 22:05:00,13.0,10.4,29.83,West,273,3.0,5.0,89,0.00,,,0.00,Wunderground v.1.15,2013-03-15 02:05:00,
2013-03-14 22:06:00,13.0,10.4,29.83,West,274,5.0,5.0,89,0.00,,,0.00,Wunderground v.1.15,2013-03-15 02:06:00,
2013-03-14 22:09:00,12.9,10.3,29.83,North,360,7.0,12.0,89,0.00,,,0.00,Wunderground v.1.15,2013-03-15 02:09:00,
2013-03-14 22:10:00,12.9,10.3,29.83,NNW,346,2.0,3.0,89,0.00,,,0.00,Wunderground v.1.15,2013-03-15 02:10:00,
2013-03-14 22:11:00,12.9,10.3,29.83,WNW,284,2.0,3.0,89,0.00,,,0.00,Wunderground v.1.15,2013-03-15 02:11:00,
2013-03-14 22:14:00,12.8,10.2,29.83,NW,313,4.0,14.0,89,0.00,,,0.00,Wunderground v.1.15,2013-03-15 02:14:00,
2013-03-14 22:16:00,12.8,10.2,29.83,West,265,2.0,14.0,89,0.00,,,0.00,Wunderground v.1.15,2013-03-15 02:16:00,
2013-03-14 22:17:00,12.8,10.2,29.83,WSW,250,2.0,14.0,89,0.00,,,0.00,Wunderground v.1.15,2013-03-15 02:17:00,
2013-03-14 22:19:00,12.8,10.2,29.83,NW,307,5.0,14.0,89,0.00,,,0.00,Wunderground v.1.15,2013-03-15 02:19:00,
2013-03-14 22:21:00,12.8,10.2,29.83,NW,321,2.0,8.0,89,0.00,,,0.00,Wunderground v.1.15,2013-03-15 02:21:00,
2013-03-14 22:22:00,12.8,10.2,29.83,WNW,286,1.0,8.0,89,0.00,,,0.00,Wunderground v.1.15,2013-03-15 02:22:00,
2013-03-14 22:25:00,12.8,10.2,29.83,NW,310,0.0,9.0,89,0.00,,,0.00,Wunderground v.1.15,2013-03-15 02:25:00,
2013-03-14 22:26:00,12.8,10.2,29.83,WNW,289,4.0,11.0,89,0.00,,,0.00,Wunderground v.1.15,2013-03-15 02:26:00,
2013-03-14 22:27:00,12.8,10.2,29.83,North,355,8.0,11.0,89,0.00,,,0.00,Wunderground v.1.15,2013-03-15 02:27:00,
2013-03-14 22:30:00,12.8,10.2,29.83,North,360,0.0,11.0,89,0.00,,,0.00,Wunderground v.1.15,2013-03-15 02:30:00,
2013-03-14 22:31:00,12.8,10.2,29.83,WSW,250,4.0,5.0,89,0.00,,,0.00,Wunderground v.1.15,2013-03-15 02:31:00,
2013-03-14 22:32:00,12.8,10.2,29.83,North,350,2.0,5.0,89,0.00,,,0.00,Wunderground v.1.15,2013-03-15 02:32:00,
2013-03-14 22:33:00,12.8,10.2,29.83,NW,306,0.0,5.0,89,0.00,,,0.00,Wunderground v.1.15,2013-03-15 02:33:00,
2013-03-14 22:35:00,12.9,10.3,29.83,NNW,331,4.0,6.0,89,0.00,,,0.00,Wunderground v.1.15,2013-03-15 02:35:00,
2013-03-14 22:37:00,12.9,10.3,29.83,WNW,302,0.0,6.0,89,0.00,,,0.00,Wunderground v.1.15,2013-03-15 02:37:00,
2013-03-14 22:38:00,12.8,10.2,29.83,NNW,332,0.0,6.0,89,0.00,,,0.00,Wunderground v.1.15,2013-03-15 02:38:00,
2013-03-14 22:39:00,12.8,10.2,29.83,NW,321,1.0,6.0,89,0.00,,,0.00,Wunderground v.1.15,2013-03-15 02:39:00,
2013-03-14 22:40:00,12.8,10.2,29.83,WSW,253,4.0,4.0,89,0.00,,,0.00,Wunderground v.1.15,2013-03-15 02:40:00,
2013-03-14 22:42:00,12.8,10.2,29.83,NW,311,0.0,6.0,89,0.00,,,0.00,Wunderground v.1.15,2013-03-15 02:42:00,
2013-03-14 22:43:00,12.9,10.3,29.83,WNW,288,1.0,6.0,89,0.00,,,0.00,Wunderground v.1.15,2013-03-15 02:43:00,
2013-03-14 22:44:00,12.9,10.3,29.83,West,275,8.0,8.0,89,0.00,,,0.00,Wunderground v.1.15,2013-03-15 02:44:00,
2013-03-14 22:45:00,12.9,10.3,29.83,NW,311,0.0,8.0,89,0.00,,,0.00,Wunderground v.1.15,2013-03-15 02:45:00,
2013-03-14 22:47:00,12.9,10.3,29.83,WNW,298,2.0,8.0,89,0.00,,,0.00,Wunderground v.1.15,2013-03-15 02:47:00,
2013-03-14 22:48:00,12.9,10.3,29.83,WNW,299,1.0,8.0,89,0.00,,,0.00,Wunderground v.1.15,2013-03-15 02:48:00,
2013-03-14 22:50:00,13.0,10.4,29.83,West,280,4.0,4.0,89,0.00,,,0.00,Wunderground v.1.15,2013-03-15 02:50:00,
2013-03-14 22:53:00,13.0,10.4,29.83,WNW,291,3.0,7.0,89,0.00,,,0.00,Wunderground v.1.15,2013-03-15 02:53:00,
2013-03-14 22:54:00,13.0,10.4,29.83,West,272,1.0,7.0,89,0.00,,,0.00,Wunderground v.1.15,2013-03-15 02:54:00,
2013-03-14 22:55:00,13.0,10.4,29.83,NW,308,0.0,7.0,89,0.00,,,0.00,Wunderground v.1.15,2013-03-15 02:55:00,
2013-03-14 22:58:00,13.0,10.4,29.83,NW,323,1.0,7.0,89,0.00,,,0.00,Wunderground v.1.15,2013-03-15 02:58:00,
2013-03-14 22:59:00,13.1,10.5,29.83,West,279,2.0,7.0,89,0.00,,,0.00,Wunderground v.1.15,2013-03-15 02:59:00,
2013-03-14 23:00:00,13.1,10.5,29.83,WNW,302,5.0,10.0,89,0.00,,,0.00,Wunderground v.1.15,2013-03-15 03:00:00,
2013-03-14 23:01:00,13.1,10.5,29.84,WNW,288,2.0,10.0,89,0.00,,,0.00,Wunderground v.1.15,2013-03-15 03:01:00,
2013-03-14 23:03:00,13.1,10.5,29.83,NNW,328,6.0,11.0,89,0.00,,,0.00,Wunderground v.1.15,2013-03-15 03:03:00,
2013-03-14 23:04:00,13.1,10.5,29.83,WNW,295,4.0,11.0,89,0.00,,,0.00,Wunderground v.1.15,2013-03-15 03:04:00,
2013-03-14 23:07:00,13.1,10.5,29.83,West,278,1.0,11.0,89,0.00,,,0.00,Wunderground v.1.15,2013-03-15 03:07:00,
2013-03-14 23:09:00,13.1,10.5,29.83,NNE,26,3.0,11.0,89,0.00,,,0.00,Wunderground v.1.15,2013-03-15 03:09:00,
2013-03-14 23:12:00,13.1,10.2,29.83,West,281,3.0,11.0,88,0.00,,,0.00,Wunderground v.1.15,2013-03-15 03:12:00,
2013-03-14 23:13:00,13.1,10.2,29.83,West,259,5.0,11.0,88,0.00,,,0.00,Wunderground v.1.15,2013-03-15 03:13:00,
2013-03-14 23:15:00,13.1,10.2,29.84,WNW,292,4.0,12.0,88,0.00,,,0.00,Wunderground v.1.15,2013-03-15 03:15:00,
2013-03-14 23:18:00,13.1,10.2,29.83,WSW,240,5.0,12.0,88,0.00,,,0.00,Wunderground v.1.15,2013-03-15 03:18:00,
2013-03-14 23:20:00,13.2,10.1,29.83,West,266,5.0,12.0,87,0.00,,,0.00,Wunderground v.1.15,2013-03-15 03:20:00,
2013-03-14 23:23:00,13.2,10.1,29.83,WNW,291,4.0,12.0,87,0.00,,,0.00,Wunderground v.1.15,2013-03-15 03:23:00,
2013-03-14 23:25:00,13.2,10.1,29.83,WSW,256,3.0,12.0,87,0.00,,,0.00,Wunderground v.1.15,2013-03-15 03:25:00,
2013-03-14 23:28:00,13.2,10.3,29.83,West,271,10.0,14.0,88,0.00,,,0.00,Wunderground v.1.15,2013-03-15 03:28:00,
2013-03-14 23:30:00,13.1,10.0,29.83,SSW,210,6.0,6.0,87,0.00,,,0.00,Wunderground v.1.15,2013-03-15 03:30:00,
2013-03-14 23:31:00,13.2,10.1,29.83,WNW,294,5.0,6.0,87,0.00,,,0.00,Wunderground v.1.15,2013-03-15 03:31:00,
2013-03-14 23:33:00,13.2,10.1,29.83,SSW,200,14.0,14.0,87,0.00,,,0.00,Wunderground v.1.15,2013-03-15 03:33:00,
2013-03-14 23:34:00,13.2,10.1,29.83,SW,235,4.0,14.0,87,0.00,,,0.00,Wunderground v.1.15,2013-03-15 03:34:00,
2013-03-14 23:35:00,13.2,10.1,29.83,West,273,8.0,14.0,87,0.00,,,0.00,Wunderground v.1.15,2013-03-15 03:35:00,
2013-03-14 23:36:00,13.2,10.1,29.83,WNW,292,1.0,14.0,87,0.00,,,0.00,Wunderground v.1.15,2013-03-15 03:36:00,
2013-03-14 23:39:00,13.1,10.0,29.84,North,360,8.0,14.0,87,0.00,,,0.00,Wunderground v.1.15,2013-03-15 03:39:00,
2013-03-14 23:40:00,13.2,10.1,29.84,WSW,248,2.0,9.0,87,0.00,,,0.00,Wunderground v.1.15,2013-03-15 03:40:00,
2013-03-14 23:41:00,13.1,10.0,29.84,WSW,240,2.0,9.0,87,0.00,,,0.00,Wunderground v.1.15,2013-03-15 03:41:00,
2013-03-14 23:44:00,13.1,10.0,29.84,WSW,254,5.0,12.0,87,0.00,,,0.00,Wunderground v.1.15,2013-03-15 03:44:00,
2013-03-14 23:45:00,13.1,10.0,29.83,West,259,7.0,15.0,87,0.00,,,0.00,Wunderground v.1.15,2013-03-15 03:45:00,
2013-03-14 23:47:00,13.1,9.7,29.84,WNW,297,8.0,15.0,86,0.00,,,0.00,Wunderground v.1.15,2013-03-15 03:47:00,
2013-03-14 23:49:00,13.1,9.7,29.84,NNE,16,0.0,15.0,86,0.00,,,0.00,Wunderground v.1.15,2013-03-15 03:49:00,
2013-03-14 23:51:00,13.1,9.7,29.84,NW,310,1.0,6.0,86,0.00,,,0.00,Wunderground v.1.15,2013-03-15 03:51:00,
2013-03-14 23:52:00,13.0,9.6,29.83,West,272,7.0,11.0,86,0.00,,,0.00,Wunderground v.1.15,2013-03-15 03:52:00,
2013-03-14 23:54:00,13.0,9.6,29.84,WNW,294,2.0,11.0,86,0.00,,,0.00,Wunderground v.1.15,2013-03-15 03:54:00,
2013-03-14 23:57:00,13.0,9.9,29.83,West,263,7.0,11.0,87,0.00,,,0.00,Wunderground v.1.15,2013-03-15 03:57:00,
2013-03-14 23:58:00,13.1,9.7,29.83,WNW,289,5.0,11.0,86,0.00,,,0.00,Wunderground v.1.15,2013-03-15 03:58:00,
2013-03-14 23:59:00,13.0,9.6,29.83,West,265,6.0,16.0,86,0.00,,,0.00,Wunderground v.1.15,2013-03-15 03:59:00,